GFSSE_sfc_30mbdewp_054.txt.gz
Dewpoint
65 65 69 69 70 70 69 69 68 67 66 65 65 65 65 64 64 64 64 64 66 66 65 64 63 61 60 61 62 63 62 62 62 61 60 59 59 59 59 60 59 61 63
66 64 69 69 69 69 68 67 66 66 65 65 65 65 64 64 63 63 64 64 65 65 65 63 61 59 59 60 61 60 60 61 60 59 59 58 59 59 60 60 59 58 59
65 65 66 68 68 67 66 66 65 65 65 65 65 64 64 63 64 64 65 65 65 65 64 63 60 59 60 60 61 60 60 60 59 55 53 50 55 58 59 59 59 59 59
65 64 63 68 67 66 65 65 65 64 64 65 64 64 63 63 63 66 66 66 65 65 64 63 59 60 60 61 61 61 60 59 57 53 48 50 53 57 58 58 59 59 58
66 64 64 67 66 65 65 65 64 65 64 64 63 63 63 63 63 64 66 65 65 66 64 62 59 60 61 62 61 60 58 56 53 48 49 51 51 56 57 58 57 58 59
65 65 66 66 65 65 65 64 65 64 63 63 63 63 63 62 62 62 64 66 66 65 63 59 58 59 60 60 59 58 56 54 48 47 50 52 52 54 55 55 55 54 55
65 66 66 65 65 64 65 65 64 63 63 63 63 63 63 62 61 61 62 64 65 63 59 57 56 57 58 57 56 56 53 49 44 45 48 51 53 53 53 54 54 54 53
66 66 65 65 65 64 65 64 64 63 63 63 63 63 62 62 62 61 60 61 61 61 60 59 57 56 55 53 53 53 51 49 42 44 47 50 53 52 52 53 52 52 52
64 65 63 62 64 65 64 64 64 64 64 63 63 62 62 62 62 60 59 58 58 59 60 58 57 56 53 51 51 51 48 45 41 43 44 48 52 51 51 51 50 50 50
61 63 62 62 63 63 64 64 64 64 64 64 63 62 61 61 61 60 59 59 58 57 57 56 56 54 50 49 49 47 44 41 39 39 44 50 51 50 49 49 49 49 49
58 59 58 57 55 57 58 62 63 63 62 61 60 59 55 51 51 51 56 59 59 58 56 54 53 50 47 46 42 36 34 35 35 37 41 53 52 50 48 48 48 48 48
55 56 56 54 51 55 59 58 60 60 56 55 54 52 49 50 49 53 57 58 58 56 53 51 47 44 42 37 35 34 32 32 29 30 39 51 51 51 48 48 47 46 46
54 54 54 54 56 57 58 57 56 59 57 56 56 53 52 51 52 52 54 50 49 48 42 41 42 40 40 37 36 34 31 27 26 25 37 48 51 51 49 47 47 46 45
53 53 55 56 56 57 56 56 55 53 56 54 54 54 54 51 50 51 49 50 48 46 45 44 43 42 40 38 37 35 33 28 28 26 36 47 52 50 48 48 46 44 43
53 54 53 54 53 56 56 56 56 56 54 51 53 53 52 51 50 49 51 49 47 47 45 44 42 40 39 38 35 32 32 33 34 31 37 51 50 49 47 45 46 44 43
54 54 53 53 53 54 53 52 54 57 54 54 52 53 53 52 54 51 50 49 47 46 45 43 42 40 38 37 35 33 32 31 34 37 36 43 50 50 46 44 44 43 42
50 49 48 49 53 53 54 54 54 52 50 50 52 57 55 54 53 52 51 49 47 47 45 44 42 41 38 35 34 32 29 31 32 35 35 37 43 45 45 44 42 39 38
49 48 49 50 52 53 56 55 53 50 50 50 56 60 60 57 54 54 51 50 49 47 45 43 42 41 38 35 33 31 30 29 31 32 37 37 36 37 40 38 37 34 31
50 50 50 50 50 53 57 57 53 54 53 52 56 58 59 60 59 54 52 51 51 45 43 43 43 42 39 35 32 33 34 29 30 25 30 35 35 29 27 37 37 36 34
51 49 49 51 53 56 57 58 55 52 53 55 58 60 60 59 60 57 54 52 47 44 44 43 43 41 38 34 29 32 36 33 30 30 29 27 28 31 29 27 28 30 33
51 52 52 53 55 57 56 54 53 51 53 55 57 59 58 57 58 57 54 52 47 45 45 46 43 42 38 38 36 37 37 37 34 31 31 28 28 30 29 28 28 26 26
50 52 53 53 55 57 55 54 51 49 51 55 58 59 58 56 55 54 52 50 48 47 45 45 43 40 39 39 37 37 36 35 34 33 31 30 30 31 28 28 29 29 28
50 52 54 55 56 57 56 55 52 53 54 56 57 58 57 56 53 52 52 50 49 47 45 44 44 41 38 39 39 37 35 33 30 31 32 32 31 32 29 27 31 31 30
51 51 51 52 53 56 57 54 51 49 49 53 56 58 56 55 53 52 51 50 49 46 45 44 43 41 40 38 39 37 35 32 30 29 29 31 32 32 30 31 31 32 32
52 52 52 52 53 55 57 57 54 51 49 52 58 57 55 54 54 51 50 49 49 46 45 44 42 42 40 38 36 34 34 34 33 30 25 21 22 27 29 31 31 31 30
55 55 55 54 53 55 56 58 57 55 54 55 56 56 56 54 53 50 48 48 47 45 45 44 44 40 41 39 35 32 33 30 25 22 22 23 23 24 27 29 28 28 29

GFSSE_sfc_30mbdewp_057.txt.gz
Dewpoint
64 64 69 70 70 70 70 69 69 68 67 66 66 66 66 66 66 66 66 67 67 66 63 62 61 61 61 62 62 62 61 63 62 61 60 59 59 60 60 61 59 61 63
64 64 69 70 70 70 69 69 68 67 66 66 66 66 65 66 65 65 67 67 66 64 61 60 60 59 59 59 60 59 59 59 61 62 60 58 59 59 60 60 60 59 60
64 63 67 70 70 69 68 67 67 66 66 66 65 65 65 65 65 65 66 66 66 64 60 60 59 59 60 60 60 59 59 58 56 56 56 52 56 58 59 61 60 59 58
64 63 65 69 69 68 67 66 66 65 65 65 65 64 65 65 66 66 66 66 66 64 60 59 60 60 60 61 60 59 58 56 55 56 48 49 54 59 59 58 59 60 59
64 63 65 68 67 67 66 66 65 65 65 64 64 65 65 67 67 67 66 66 65 63 60 60 60 60 60 60 59 58 57 56 55 48 50 50 51 56 56 56 55 57 58
65 63 66 67 66 66 66 65 65 65 64 64 64 64 65 66 67 67 66 66 65 62 59 59 58 58 59 59 57 55 53 51 52 48 50 51 52 54 55 55 54 54 56
65 66 66 66 66 66 65 65 65 64 64 64 64 64 64 65 66 67 66 66 64 60 58 57 56 56 56 56 54 51 51 49 43 47 49 51 52 53 53 53 53 53 53
66 66 66 66 65 65 65 65 64 64 64 64 64 63 63 63 65 66 65 63 61 60 59 57 56 54 53 53 52 48 46 46 42 46 48 50 52 52 52 52 52 52 52
66 65 65 64 65 65 64 63 63 64 64 64 64 63 63 62 62 63 63 62 61 60 58 57 55 54 51 51 48 43 42 42 42 44 47 49 51 50 50 50 50 51 50
64 63 63 63 64 62 63 62 63 62 63 64 63 63 62 61 60 60 60 61 61 59 57 55 53 51 50 48 45 43 42 42 38 41 47 51 51 50 50 50 50 50 49
60 61 62 62 62 62 62 62 61 63 63 62 61 59 55 54 52 50 58 59 58 58 57 54 51 49 43 39 35 33 39 34 34 38 46 53 51 49 49 49 48 49 48
56 57 59 60 59 59 57 58 58 59 58 56 55 54 52 52 51 53 58 59 58 56 55 52 47 43 44 37 35 35 33 31 28 32 46 53 52 49 48 48 47 47 47
56 55 54 55 55 58 58 57 56 56 56 55 55 53 53 55 55 54 54 52 51 49 43 43 43 44 43 40 38 35 31 28 27 27 40 51 52 50 49 48 47 46 45
54 53 54 58 58 57 56 56 55 56 56 54 55 55 55 54 54 53 50 49 48 46 44 46 45 45 43 41 39 36 34 30 30 28 39 49 52 51 50 48 46 44 44
53 54 55 56 56 55 54 55 53 48 48 49 54 55 53 52 54 53 51 49 48 48 48 46 46 44 43 40 37 34 33 34 34 32 41 49 50 51 48 49 46 45 43
53 54 54 55 56 56 54 55 55 52 50 50 52 54 55 54 54 51 52 50 48 48 47 46 45 44 41 40 38 34 32 31 35 36 37 44 51 51 47 45 46 44 44
52 53 53 54 56 55 54 53 52 54 52 51 51 55 53 52 54 51 51 50 49 48 48 47 46 44 42 38 37 34 31 32 33 34 34 40 44 46 46 46 44 41 39
52 51 53 53 54 52 52 52 56 51 50 46 49 52 55 53 54 52 52 51 50 49 48 47 45 44 43 39 36 33 32 31 32 32 36 36 37 42 44 42 39 35 32
49 49 50 50 52 52 53 53 53 51 51 49 49 54 59 57 54 54 52 52 52 50 49 46 46 46 43 39 35 35 37 33 33 28 31 36 36 29 29 40 36 33 32
47 48 49 51 52 53 54 54 51 51 52 49 49 54 58 58 59 56 53 53 53 51 47 46 46 45 44 39 31 32 39 38 35 33 32 31 30 31 32 30 30 31 34
48 49 50 51 52 50 50 50 49 48 49 49 51 55 60 59 58 60 57 55 55 49 48 47 46 45 43 40 38 38 40 41 40 35 33 32 30 30 31 31 30 28 31
48 48 48 48 48 49 48 48 47 47 47 51 52 55 59 59 57 58 58 56 54 50 48 48 47 46 44 41 39 38 39 39 38 38 35 33 33 33 32 30 30 30 31
49 49 48 49 50 50 50 49 48 47 46 47 50 54 59 59 57 57 57 55 53 51 49 48 46 46 43 42 41 39 39 37 36 35 36 35 35 34 33 32 29 30 32
49 50 51 50 50 51 52 50 49 47 45 46 50 53 58 58 58 58 56 57 54 52 50 49 47 47 44 41 41 41 39 37 35 34 33 33 34 34 34 33 31 32 32
50 51 52 52 52 52 52 52 51 50 47 47 50 53 57 58 57 56 56 56 54 52 49 48 47 47 44 42 41 37 37 38 38 36 33 30 27 26 27 30 32 32 30
50 52 52 51 51 50 51 53 54 52 51 48 48 58 57 57 57 56 55 54 54 52 50 49 48 46 44 41 40 37 34 37 34 32 28 26 26 27 27 27 29 29 29

GFSSE_sfc_30mbdewp_060.txt.gz
Dewpoint
63 67 70 70 70 70 70 69 69 68 68 67 67 67 67 67 67 67 67 67 66 64 62 62 61 60 60 60 60 61 63 63 62 62 60 59 60 60 60 61 61 60 63
65 68 70 70 70 70 69 69 68 68 67 67 67 67 67 67 67 68 67 66 64 62 61 60 59 59 58 58 59 60 62 63 62 61 59 58 59 61 60 60 60 59 59
64 68 69 70 70 70 69 68 68 67 67 67 66 66 66 67 68 68 66 64 63 61 60 60 59 59 58 59 59 59 59 59 60 61 56 58 59 57 61 61 61 61 60
64 67 69 70 69 69 68 67 67 66 66 66 66 65 66 66 67 67 66 64 63 61 60 60 59 59 58 60 59 59 58 57 58 56 52 54 56 57 56 59 59 58 57
64 65 69 69 69 68 67 67 66 66 65 65 65 66 66 66 67 67 66 63 63 61 60 59 59 58 58 58 57 55 52 53 54 51 52 53 54 56 56 55 56 56 57
64 66 68 68 68 67 67 66 66 65 65 65 65 66 67 67 67 67 66 63 62 61 59 58 57 57 57 55 53 53 52 52 51 51 52 53 54 54 54 54 54 55 55
65 67 67 67 67 67 66 66 65 65 65 65 66 67 67 67 67 66 65 63 62 60 57 56 55 55 54 52 51 49 47 50 49 50 51 53 53 53 53 53 53 53 53
66 67 66 67 66 66 66 65 65 65 65 65 66 66 67 67 67 66 63 62 61 60 58 56 55 54 53 48 43 43 45 48 49 50 51 52 52 52 52 52 52 51 51
65 62 62 64 65 65 65 64 65 65 65 65 64 65 66 66 65 64 62 62 60 59 57 54 53 52 49 44 43 44 44 45 49 50 50 51 51 51 51 51 51 51 50
63 63 63 62 62 62 62 59 61 64 64 64 63 63 63 63 63 63 62 61 59 58 55 53 52 50 45 41 40 38 39 41 47 50 51 52 51 51 50 50 50 50 50
62 62 62 62 62 61 60 61 60 60 63 62 61 60 59 59 59 58 61 60 59 58 55 52 48 43 37 34 32 34 40 34 43 50 52 53 50 50 50 49 49 49 49
57 60 61 61 59 59 56 55 57 59 59 58 56 54 53 55 55 59 60 59 58 56 53 50 46 42 40 37 37 37 34 35 42 52 54 54 50 50 49 48 48 48 48
55 57 58 59 58 57 58 58 57 57 57 56 56 55 57 56 56 57 55 54 54 51 45 46 47 46 46 42 41 39 37 32 37 43 52 54 52 50 49 48 47 47 46
54 55 57 58 57 57 56 56 56 56 56 55 56 57 57 56 55 54 53 52 49 49 44 47 49 46 44 42 40 37 36 37 37 38 48 52 53 51 49 48 46 45 45
53 55 56 56 55 55 55 56 55 56 55 56 55 56 56 56 55 53 52 51 49 51 49 49 48 46 44 42 39 36 36 36 36 42 45 49 49 51 50 48 47 45 44
53 54 55 55 54 54 53 54 53 53 52 51 55 55 54 55 57 53 55 52 52 51 50 50 48 46 46 41 38 36 35 36 37 40 44 49 50 52 48 48 47 46 45
53 54 54 55 54 54 53 53 53 53 51 51 55 55 55 55 56 54 54 54 53 51 50 50 49 47 44 43 39 36 35 35 35 36 42 45 49 48 46 45 46 44 41
52 51 54 55 54 53 53 52 53 51 50 51 54 55 55 56 56 56 54 54 53 52 51 50 47 47 46 43 39 36 35 34 33 33 37 42 45 46 48 46 43 40 36
51 51 52 54 53 52 53 53 52 54 54 53 52 56 57 56 57 56 55 54 54 52 51 51 48 49 47 43 39 38 38 37 34 33 33 37 38 39 45 45 42 38 35
51 51 52 53 52 52 51 50 53 55 53 53 52 55 58 58 55 56 56 55 55 53 51 49 48 49 48 44 38 36 41 39 37 36 34 33 36 33 33 40 38 37 35
51 51 51 52 54 53 51 52 53 53 54 54 52 53 59 59 59 58 56 56 56 54 51 50 50 47 46 43 39 39 41 42 42 39 37 36 34 34 34 34 33 33 36
50 50 51 52 52 53 53 53 53 51 52 53 52 53 58 60 60 59 59 58 57 55 52 50 49 47 46 46 41 41 40 43 43 42 39 37 36 35 35 35 33 32 32
48 49 51 52 52 53 53 51 51 50 50 50 52 53 59 60 60 59 60 59 58 56 53 51 50 48 46 47 43 42 41 40 38 41 40 39 38 37 36 35 34 32 33
50 51 51 51 51 52 51 49 48 48 48 49 51 53 58 60 59 58 58 57 57 56 55 54 51 49 48 44 45 43 41 38 37 36 40 39 39 37 36 36 35 34 34
51 51 50 50 50 51 51 52 52 50 49 48 50 52 59 59 59 58 58 58 57 58 57 53 51 50 49 47 44 40 38 39 40 39 37 36 36 37 36 39 36 36 34
51 52 52 52 52 52 52 53 54 53 52 50 51 53 58 59 58 58 58 57 57 56 53 52 53 51 52 47 41 39 38 37 38 35 35 35 32 31 31 33 36 33 32

GFSSE_sfc_30mbdewp_063.txt.gz
Dewpoint
68 71 70 70 70 70 70 69 69 68 67 68 67 67 67 67 68 68 67 65 65 63 61 60 59 59 61 61 61 63 63 62 62 61 61 59 59 60 60 60 60 61 62
63 68 69 69 70 70 70 69 68 67 67 67 67 67 67 68 68 67 65 65 63 61 60 58 57 59 60 61 62 63 63 62 61 61 58 59 60 60 61 60 60 59 59
56 56 65 69 70 70 69 68 68 67 67 67 67 67 68 68 67 65 64 63 62 60 59 58 56 58 59 60 61 61 61 61 60 61 58 54 57 60 60 59 59 58 59
60 55 53 67 68 69 69 68 67 67 67 67 67 67 68 67 66 65 64 63 63 61 59 57 56 59 59 59 58 58 59 57 56 55 55 55 54 56 57 57 56 56 57
58 65 66 68 68 69 68 67 67 67 66 66 66 67 68 67 65 64 63 63 62 60 58 56 56 58 57 56 55 53 58 56 55 54 54 55 55 55 56 55 56 56 57
62 67 67 67 68 68 68 67 67 66 66 66 66 67 68 67 65 64 63 63 62 58 56 55 55 54 53 52 50 55 56 55 53 53 54 54 54 54 54 55 54 54 54
67 68 68 68 68 68 67 67 66 66 66 66 66 67 68 67 65 64 63 62 60 58 56 54 52 51 51 49 49 53 56 54 52 52 53 53 53 53 53 53 53 53 53
65 64 65 67 67 67 67 66 66 66 67 67 67 67 67 67 65 64 63 61 60 59 56 54 53 51 47 46 47 48 55 52 52 52 52 53 53 52 52 52 52 52 52
62 63 63 61 62 62 65 65 65 66 66 66 67 67 67 66 64 63 62 61 60 58 55 53 51 47 45 44 42 42 48 52 51 51 51 52 52 52 52 51 51 51 51
62 62 62 62 61 60 60 61 60 63 64 65 66 66 65 64 63 62 61 60 58 56 54 51 46 41 40 36 36 38 49 52 51 51 52 52 51 51 51 50 50 50 50
61 62 61 61 60 59 60 60 60 61 63 63 63 62 62 62 60 60 60 59 58 55 53 48 43 40 37 36 38 39 45 50 51 51 52 53 51 51 50 50 50 49 49
59 60 61 60 58 58 58 59 60 61 59 58 57 58 58 59 59 60 60 59 56 54 51 49 43 41 41 40 39 38 40 50 53 53 54 53 51 50 50 49 49 49 48
57 60 60 59 58 57 57 56 55 56 58 56 55 57 57 59 58 57 56 55 54 50 48 47 45 44 44 40 37 36 38 46 51 53 54 54 51 50 49 48 48 47 47
55 57 58 57 56 53 55 54 57 57 57 57 56 57 56 55 54 53 52 50 46 45 44 47 48 44 41 39 37 36 37 39 46 52 54 54 52 50 49 48 47 47 45
55 55 56 57 57 57 56 57 57 56 56 57 57 57 56 54 52 53 51 49 47 48 45 49 46 44 41 40 37 36 35 37 38 46 52 52 54 51 50 49 47 46 45
54 54 55 55 55 55 55 56 56 55 55 55 56 56 57 55 53 52 51 48 49 50 50 48 46 45 43 38 35 35 36 37 41 41 48 50 51 52 51 49 48 47 46
54 54 54 54 54 54 53 53 53 52 52 53 56 55 56 56 54 53 52 52 52 52 50 48 47 47 43 40 36 36 34 36 37 42 45 49 51 52 49 50 48 46 45
54 53 54 54 53 52 53 53 52 49 48 49 53 55 54 55 56 54 55 54 54 53 50 50 48 47 44 42 38 36 35 35 33 35 44 46 49 48 49 48 48 45 42
53 54 54 54 53 52 52 52 51 48 51 46 54 55 54 55 56 55 54 54 53 52 51 50 48 47 47 45 39 38 36 35 33 33 39 43 46 47 47 47 45 44 41
51 53 53 53 52 52 51 50 50 52 54 53 53 54 55 55 57 55 55 55 54 52 51 50 49 48 49 45 38 38 38 38 35 35 32 35 38 44 45 45 45 41 40
50 52 52 52 51 51 50 49 48 50 53 53 54 53 57 57 56 56 56 56 55 52 52 49 48 47 47 46 43 38 41 40 38 38 36 33 33 34 40 43 40 37 37
50 51 52 51 51 50 50 49 49 51 53 54 54 53 57 58 58 57 56 57 57 55 51 50 49 48 47 47 40 41 39 43 43 41 39 36 35 36 34 35 36 34 35
51 51 51 51 51 49 49 49 52 53 53 53 53 52 57 58 59 59 59 58 58 56 53 51 50 48 46 47 46 42 41 39 41 41 41 40 38 36 36 36 35 34 33
50 50 50 51 52 51 51 50 51 52 50 50 52 53 56 59 59 59 59 59 58 57 55 53 51 50 48 47 49 47 42 39 38 37 40 41 39 39 36 36 35 34 32
49 50 50 51 51 51 52 53 52 50 49 50 50 52 54 59 59 58 58 57 57 57 55 54 53 51 52 51 50 46 44 44 43 39 37 38 39 39 38 37 37 36 35
48 49 50 51 50 50 51 52 52 49 50 50 50 51 55 59 59 58 58 57 57 57 57 55 53 53 52 49 48 46 44 42 41 38 37 37 35 34 33 34 37 38 36

GFSSE_sfc_30mbdewp_069.txt.gz
Dewpoint
68 69 70 68 69 68 69 69 69 68 68 67 67 68 68 68 67 67 66 65 64 63 61 62 61 61 60 61 62 62 62 61 61 60 59 60 61 60 59 62 63 63 63
68 69 70 70 70 69 69 69 68 68 69 68 68 68 67 67 66 66 65 63 63 62 61 62 61 61 61 61 61 61 61 63 63 63 61 61 58 57 58 59 62 62 62
69 69 70 69 69 68 68 68 68 68 69 68 68 67 67 66 65 64 63 62 63 62 61 61 60 61 61 61 61 60 59 59 60 59 57 55 58 59 59 60 61 60 60
65 69 69 69 69 68 65 65 67 67 68 68 67 67 66 65 65 63 62 62 63 63 61 60 60 61 62 63 61 59 59 58 57 57 55 55 57 58 59 60 58 57 57
62 61 69 69 68 67 65 65 65 66 68 68 67 66 65 65 64 63 61 62 63 62 60 58 56 59 61 63 61 59 58 57 56 55 55 55 54 57 57 57 57 57 56
62 60 61 67 65 66 66 65 66 66 67 68 67 66 65 65 64 63 61 61 62 61 57 54 57 61 61 60 60 58 57 56 55 54 55 55 54 54 56 55 55 54 52
62 63 63 62 60 60 60 64 67 65 67 67 66 65 65 65 64 62 61 60 60 59 54 57 61 61 60 59 58 57 56 55 53 53 53 53 53 54 54 53 53 51 52
63 64 62 60 59 60 59 61 65 63 67 67 66 65 65 64 63 62 60 59 58 57 55 56 60 60 59 58 57 57 56 54 53 52 53 52 53 54 54 53 53 51 51
62 61 60 60 60 59 59 59 65 62 63 66 65 65 65 64 62 61 60 58 56 53 53 52 57 60 58 57 57 56 55 54 52 52 52 52 52 52 52 51 51 50 50
61 60 60 60 59 59 59 59 62 62 66 65 65 65 64 63 62 60 58 56 52 52 52 52 55 57 58 57 56 56 55 53 51 52 52 53 52 52 52 52 51 50 49
60 61 60 59 59 59 59 59 58 60 65 65 65 64 62 61 60 56 56 55 53 53 51 51 53 57 57 57 56 55 52 51 52 52 53 54 52 52 51 51 50 49 48
58 59 60 59 59 59 59 59 57 59 61 63 63 62 60 58 57 57 57 55 52 51 52 52 48 52 54 54 55 53 51 51 52 53 54 53 51 51 51 50 49 48 48
58 58 59 59 58 58 58 58 58 59 61 61 61 60 58 58 58 56 54 53 49 46 45 44 41 39 44 47 49 50 51 52 53 53 54 53 52 51 50 50 48 47 47
58 57 58 59 58 58 56 56 57 60 60 60 60 58 57 56 55 53 50 47 44 46 44 42 41 38 40 46 48 50 51 52 52 53 55 54 52 51 50 50 49 47 46
56 57 57 58 58 57 56 56 58 58 59 60 59 57 55 53 51 50 48 45 45 47 46 43 40 39 37 40 43 47 50 51 52 53 54 54 53 51 50 50 49 47 45
56 56 57 57 57 57 56 56 58 58 58 58 58 55 54 52 51 48 46 45 46 48 46 44 41 39 36 36 37 40 45 50 51 53 53 54 53 52 51 49 49 48 46
54 55 56 56 57 55 55 56 57 58 58 57 55 54 53 52 49 47 46 46 47 48 47 46 43 41 37 36 35 38 38 44 47 50 52 53 54 53 52 51 49 48 48
54 55 56 57 57 56 56 56 56 55 57 56 55 53 52 51 50 47 46 47 49 49 48 47 46 43 40 37 35 35 38 38 39 43 48 50 52 53 54 53 52 49 48
54 55 55 56 56 55 55 55 53 53 55 55 56 53 52 51 51 48 48 49 50 50 50 48 47 46 43 40 37 36 36 38 40 40 41 44 48 52 51 52 53 50 48
54 54 54 55 55 54 53 53 51 52 52 54 55 54 53 52 53 51 52 52 52 52 50 49 48 48 45 43 40 37 37 37 36 38 41 42 45 49 50 49 51 49 48
53 53 53 53 53 53 52 53 50 49 49 52 53 55 55 55 55 53 54 54 54 52 50 50 48 47 47 47 43 40 39 38 36 35 36 42 44 46 48 48 48 46 46
53 53 53 52 52 51 51 51 50 47 48 51 51 52 54 55 56 56 55 55 53 52 51 50 49 48 47 48 44 40 37 39 42 39 37 36 40 42 45 46 46 45 43
52 52 52 51 51 50 50 50 48 47 47 47 49 50 51 53 55 55 56 55 55 53 51 51 50 48 47 49 44 43 41 39 41 43 41 38 35 36 38 42 44 43 41
51 52 52 52 51 50 50 48 48 46 43 43 44 47 48 52 54 56 56 56 56 55 54 52 52 50 49 48 49 46 46 44 41 40 42 42 41 39 37 37 38 39 39
50 51 52 52 51 51 50 49 48 47 46 45 46 47 48 51 54 56 57 56 56 56 56 54 52 51 51 49 49 47 46 45 45 44 42 43 43 43 43 40 38 38 37
49 50 51 51 51 51 50 50 48 47 47 47 49 49 50 51 53 56 57 57 57 57 56 55 54 52 51 50 50 48 47 46 45 45 44 43 42 39 37 37 38 39 39

GFSSE_sfc_30mbdewp_072.txt.gz
Dewpoint
66 70 70 69 69 69 68 68 68 69 69 69 69 68 68 68 68 68 67 67 66 65 64 63 64 63 63 63 61 61 62 61 62 62 62 61 60 63 63 63 63 63 63
67 70 69 69 69 69 68 68 68 68 69 68 68 68 68 68 68 67 66 65 64 63 61 61 60 61 62 62 62 62 63 63 62 61 59 59 59 60 62 62 62 62 61
69 69 69 69 69 69 68 68 68 68 68 68 68 68 68 67 66 65 65 64 64 63 61 61 60 60 61 61 61 61 60 60 58 58 59 59 59 60 60 60 60 59 58
66 68 68 69 68 68 68 68 69 68 68 68 68 67 67 66 65 64 64 64 63 62 60 59 61 61 60 61 60 60 59 59 58 57 57 57 59 60 59 59 58 57 57
63 64 67 68 67 67 68 68 68 68 68 68 67 67 66 65 64 64 64 64 63 63 63 62 62 62 61 61 60 59 58 58 57 55 54 56 58 58 58 56 55 55 52
64 61 64 65 64 66 65 64 65 68 68 67 67 66 65 64 63 64 64 63 63 61 60 61 62 63 62 61 59 58 58 57 56 55 55 56 56 57 55 52 53 52 53
64 62 63 62 62 62 62 62 62 65 67 67 66 65 64 64 63 63 63 63 61 58 58 62 62 61 61 59 58 58 57 56 53 53 53 54 56 56 53 53 52 51 51
64 63 61 61 60 61 60 59 62 64 66 66 66 65 65 64 62 62 63 61 58 61 62 62 61 60 59 58 57 57 56 55 53 53 53 55 53 53 53 52 51 51 51
62 60 60 61 60 60 59 58 62 64 65 65 65 65 64 63 62 61 60 59 58 62 62 61 60 59 58 57 57 56 56 54 52 52 52 53 53 52 52 51 51 50 50
60 60 60 60 60 60 60 59 59 63 65 64 64 64 64 63 62 60 58 56 57 60 61 60 59 59 58 57 57 56 55 54 52 52 53 54 53 52 52 51 50 50 50
59 59 60 59 59 58 58 59 60 63 64 63 63 64 62 61 59 57 54 55 55 57 59 60 59 58 57 57 56 55 53 52 52 53 53 54 53 52 51 51 50 49 48
58 59 60 59 59 59 59 59 62 63 62 61 61 61 60 58 56 57 55 54 55 55 58 59 59 57 56 55 55 53 52 52 53 53 54 54 52 52 51 50 49 48 47
59 59 59 59 59 58 58 57 60 61 62 62 59 60 57 57 57 55 52 52 52 50 51 56 54 51 53 52 51 51 52 52 53 54 54 54 52 51 50 50 49 48 47
58 58 59 58 58 58 58 56 58 60 61 59 60 57 56 55 53 51 48 45 45 44 41 45 47 47 49 49 50 51 52 52 52 53 55 54 52 51 51 49 49 48 46
57 57 58 58 58 57 57 56 58 60 60 60 58 56 54 51 50 48 46 45 45 45 41 39 42 46 47 48 49 50 51 52 52 53 54 54 53 51 51 51 49 47 46
57 57 58 58 58 57 55 56 58 59 60 60 58 55 52 50 49 46 44 46 46 44 42 40 38 43 44 45 47 49 50 51 52 53 53 54 53 53 51 50 50 48 46
56 57 57 57 58 57 56 57 58 58 59 59 57 54 52 49 48 46 45 46 47 46 44 41 39 37 37 38 42 46 48 50 51 52 53 53 54 53 52 51 50 49 48
55 56 56 57 57 56 56 57 58 58 58 58 55 54 52 50 48 46 46 47 48 48 46 43 40 38 36 36 36 38 43 47 49 51 52 53 53 53 53 53 52 50 49
54 55 56 57 56 56 56 56 56 57 57 57 55 53 51 50 48 46 46 47 49 50 48 45 44 42 39 37 35 36 38 39 41 42 48 50 52 53 53 54 53 53 52
54 55 56 56 56 56 55 55 55 56 57 57 55 52 50 50 48 48 48 49 50 50 49 48 46 47 44 41 38 36 36 37 38 40 41 43 47 51 52 51 54 53 51
54 54 55 55 55 55 53 52 54 54 55 56 55 53 51 51 49 49 50 50 52 50 49 49 48 47 47 45 42 40 39 38 37 36 37 42 43 45 49 50 50 50 49
52 53 54 54 54 54 54 53 53 52 52 53 54 54 54 53 53 52 52 53 53 52 51 50 48 47 47 46 44 41 40 39 40 38 36 36 40 44 46 48 48 48 47
52 53 53 53 53 53 53 53 52 51 51 51 51 52 54 55 55 55 55 54 54 53 52 50 49 48 47 48 46 44 41 40 40 43 41 38 37 40 43 46 46 46 46
52 52 52 51 52 50 50 50 49 48 49 48 49 50 51 54 55 55 55 55 55 54 52 52 51 49 49 47 49 47 46 45 42 44 43 42 41 37 38 39 40 43 44
51 52 52 51 51 50 49 50 49 48 47 44 45 46 47 49 52 53 55 55 56 55 55 53 52 51 50 49 49 47 46 46 45 45 44 45 44 44 42 40 41 39 39
50 51 51 51 50 50 50 49 48 47 47 45 44 45 47 49 50 52 53 55 56 56 56 55 55 53 52 51 50 48 47 47 45 45 44 45 44 44 41 41 41 40 40

GFSSE_sfc_30mbdewp_075.txt.gz
Dewpoint
66 67 69 70 70 70 70 70 69 69 69 69 69 68 68 69 69 69 69 68 67 66 65 64 65 64 64 64 64 64 64 65 64 64 64 63 63 64 63 63 63 62 63
67 68 69 69 69 69 70 70 70 69 69 69 68 68 69 69 69 68 68 67 66 65 64 64 63 63 62 61 62 62 62 61 61 63 62 62 63 63 62 62 62 61 61
68 68 67 69 69 69 69 70 69 69 69 69 68 68 68 68 68 67 66 65 65 64 63 62 62 63 61 62 63 62 62 62 62 61 59 58 61 61 60 59 59 59 58
68 68 67 69 69 69 69 69 69 69 69 69 68 68 68 67 66 66 65 64 64 62 60 60 60 61 62 62 61 60 59 60 59 58 57 57 58 59 59 58 57 58 57
64 67 66 69 68 66 67 68 69 69 69 68 68 68 67 66 66 65 64 64 63 62 60 59 60 61 62 62 61 60 59 58 57 55 57 57 56 57 57 54 55 53 55
63 65 66 66 66 65 65 66 66 68 68 68 67 67 66 66 65 65 64 63 62 61 62 60 61 61 61 61 60 60 58 57 55 53 55 57 55 55 54 53 56 52 53
64 65 65 65 64 64 63 63 63 65 66 67 67 66 65 65 65 65 64 63 64 64 64 63 61 60 60 60 59 58 58 56 52 53 55 57 55 54 52 54 51 52 52
64 64 64 64 64 63 62 60 61 65 64 66 65 65 65 65 64 64 64 62 61 62 63 64 61 60 59 59 58 58 57 54 53 54 54 54 54 54 53 51 52 52 51
63 63 63 63 63 62 61 59 58 62 65 65 65 65 64 64 64 64 62 60 61 64 64 63 61 60 59 58 57 57 56 54 53 53 50 53 53 53 52 52 51 51 50
60 61 62 62 62 61 61 60 60 63 64 65 65 64 63 64 64 62 60 63 64 63 62 61 60 59 59 58 57 56 56 54 52 52 51 52 53 52 52 52 51 50 50
60 60 60 60 60 60 60 60 60 63 64 65 65 64 62 62 61 59 58 63 63 62 61 59 59 59 58 57 57 56 53 51 51 51 51 55 53 52 52 51 51 50 49
58 59 60 60 60 59 59 60 61 61 64 63 63 62 60 59 57 55 58 60 62 61 60 59 59 58 54 53 54 54 51 52 52 52 52 55 53 52 52 51 50 49 49
59 59 60 59 59 59 58 59 61 62 61 63 62 60 57 56 55 55 56 57 59 60 56 56 55 52 52 51 50 51 52 52 51 51 53 54 53 52 51 50 49 48 48
59 59 60 59 59 58 57 58 61 60 61 61 60 57 56 54 53 52 51 52 55 57 57 55 53 53 53 51 51 52 52 51 51 51 53 54 53 52 51 50 50 48 47
58 58 59 59 58 58 57 58 60 60 59 59 58 55 53 50 50 49 48 47 47 51 53 52 51 51 50 50 50 51 51 51 52 51 51 54 54 52 51 51 50 48 47
58 58 59 58 58 57 56 57 60 60 59 58 57 54 51 48 47 46 47 46 45 46 48 50 50 50 49 48 50 50 50 50 51 52 51 52 53 53 53 51 49 48 46
57 58 58 58 58 57 56 58 59 60 58 58 56 53 50 47 45 46 47 46 46 44 45 46 49 49 48 47 48 50 50 51 51 52 52 51 52 53 53 52 50 49 48
55 57 58 58 58 57 57 58 59 60 59 58 54 52 50 47 46 48 48 48 48 46 44 43 44 44 44 44 46 47 48 50 51 52 52 52 51 50 53 54 52 50 49
54 56 57 57 56 56 57 58 58 59 58 56 54 51 50 48 48 48 49 50 51 49 47 42 41 40 39 39 40 41 44 47 50 50 51 53 53 52 50 52 53 53 52
54 56 56 57 56 57 57 57 57 58 58 57 53 51 50 48 49 48 50 50 51 49 48 46 44 45 41 39 34 37 40 41 43 44 47 50 52 53 53 52 51 51 53
54 55 56 56 56 56 56 55 56 56 57 57 54 52 50 48 49 48 49 50 52 50 49 50 49 48 47 45 41 41 40 41 41 40 42 42 45 49 52 53 53 52 51
52 53 55 55 55 55 55 55 55 56 57 57 55 53 51 49 49 49 50 52 52 52 52 51 50 50 50 47 45 44 44 44 41 41 39 40 43 43 46 49 51 51 51
50 51 53 54 55 55 54 54 54 54 55 55 54 54 52 51 50 51 52 54 54 54 53 53 51 50 49 49 48 47 44 43 43 44 44 40 38 41 42 46 48 50 50
51 52 54 54 54 55 54 53 53 52 52 54 54 54 53 53 52 51 54 54 55 56 55 54 53 51 51 49 50 50 49 47 46 45 45 44 45 44 41 42 44 46 47
50 52 52 53 53 53 54 53 52 53 53 54 54 53 53 53 52 53 55 55 56 56 56 55 54 53 53 51 50 49 48 47 48 47 46 48 46 45 44 42 41 41 42
50 52 52 52 52 51 52 52 51 51 51 50 51 51 51 53 54 55 55 56 56 57 57 56 56 55 54 52 53 52 50 50 48 47 47 47 47 47 46 46 45 44 42

GFSSE_sfc_30mbdewp_078.txt.gz
Dewpoint
64 63 67 70 69 70 71 70 70 69 70 70 69 68 68 68 69 69 69 68 67 66 65 66 65 65 65 65 65 65 65 65 65 65 65 64 64 64 63 64 63 63 63
64 63 69 70 69 70 71 70 69 70 70 69 69 68 68 68 69 69 69 68 66 65 65 65 65 65 64 64 63 64 64 65 65 65 64 63 63 63 62 62 62 62 62
66 65 66 70 69 70 71 70 70 70 70 69 68 69 69 69 69 69 68 67 66 65 65 64 64 63 63 63 64 63 63 62 63 64 62 60 61 61 60 60 60 60 60
67 66 64 69 69 69 70 70 70 70 69 69 69 69 69 69 69 68 67 66 66 64 64 63 63 63 62 62 62 62 62 61 59 60 57 58 59 60 59 59 58 58 58
66 67 65 69 68 68 67 69 70 69 69 69 69 69 68 68 67 67 66 65 64 64 63 63 63 62 62 62 62 61 59 58 59 54 55 56 57 57 56 55 56 55 55
64 68 68 68 67 66 65 67 65 68 69 68 68 68 68 67 67 66 65 64 63 62 61 61 62 62 62 62 61 59 57 55 54 54 54 53 53 56 55 54 54 54 54
65 67 66 67 65 65 65 65 66 66 67 67 68 67 67 67 66 65 64 63 62 62 62 61 62 61 61 61 60 58 56 55 50 52 52 52 53 56 53 54 53 53 53
64 66 66 65 65 65 65 64 64 65 65 67 64 66 67 66 66 65 64 63 64 63 62 62 61 61 60 60 59 57 55 51 51 52 50 52 54 54 53 53 53 53 52
65 66 66 65 65 63 62 63 65 65 65 66 65 64 65 65 65 64 64 64 64 64 63 62 61 60 60 59 58 56 54 53 50 50 49 52 54 52 53 53 52 52 52
63 63 64 65 64 62 61 60 62 65 63 64 64 64 64 64 64 63 63 64 65 64 63 61 60 60 59 58 57 56 55 53 48 48 49 52 53 53 53 52 52 52 52
60 61 62 62 63 63 62 61 61 62 64 64 64 64 64 63 62 61 60 64 64 63 62 60 60 59 58 58 57 54 54 47 48 47 49 55 54 53 53 52 52 51 51
59 60 60 60 61 61 60 61 61 61 62 62 63 64 63 62 60 59 64 64 63 61 60 60 59 58 53 50 52 53 47 48 48 48 51 55 53 53 52 52 51 50 50
60 60 60 60 61 60 61 60 62 63 62 62 62 62 62 60 60 60 63 61 60 57 52 54 54 48 47 46 47 46 49 49 48 48 53 55 53 53 52 51 50 50 49
59 60 60 60 60 60 59 59 61 62 62 63 62 60 59 59 57 59 59 57 55 52 52 51 49 49 48 47 47 48 48 47 48 48 53 54 54 52 52 50 49 49 48
58 59 60 60 60 59 59 59 61 61 61 60 60 58 57 55 54 55 58 57 55 54 53 51 50 50 48 48 48 48 48 48 49 48 51 54 54 53 52 51 50 48 47
57 58 59 60 59 58 57 60 60 59 59 58 58 56 55 53 51 52 52 53 56 56 53 51 50 46 44 45 46 47 47 49 49 49 49 52 53 53 52 51 50 49 47
54 57 59 59 59 57 57 59 59 59 58 57 56 54 53 52 51 49 48 49 51 52 51 50 49 46 44 44 45 47 47 48 49 50 49 49 52 54 53 52 51 49 47
53 56 58 58 58 57 57 59 59 58 58 57 54 51 50 49 49 47 46 47 48 50 50 50 48 46 45 43 43 45 45 47 48 50 49 49 49 49 53 53 52 51 49
52 55 57 58 58 57 58 59 59 58 57 57 54 50 49 48 49 46 46 47 47 45 46 46 45 44 42 41 42 43 44 45 48 48 48 50 50 49 49 53 54 53 52
52 54 56 58 57 57 58 58 58 57 56 56 53 49 46 45 48 45 44 47 45 43 43 41 42 41 40 39 36 39 42 43 44 46 47 48 49 51 50 49 51 51 53
53 54 56 56 56 57 56 57 56 56 55 54 52 49 46 46 47 49 51 50 47 47 46 46 44 45 43 42 38 40 40 42 42 42 44 46 47 49 50 50 50 50 52
52 53 55 56 56 56 56 55 57 56 56 54 53 50 49 49 51 52 51 51 51 52 50 50 48 48 49 46 44 45 44 43 41 41 40 41 44 44 48 50 53 52 52
52 52 54 56 56 56 56 55 57 57 57 54 53 51 51 50 49 51 52 52 53 53 52 52 51 50 49 51 50 47 46 45 46 46 44 43 42 44 44 42 44 51 52
51 52 53 55 55 55 55 55 55 55 54 54 53 52 52 51 50 51 52 53 53 52 52 53 52 52 50 50 50 49 53 51 48 48 48 46 44 42 43 42 46 47 49
51 52 54 55 55 55 54 54 54 54 54 55 54 53 52 52 52 51 52 52 51 54 53 54 54 54 53 51 52 51 51 51 49 47 47 49 48 46 46 46 43 42 46
51 52 53 53 54 55 54 54 54 54 54 54 54 53 52 51 51 50 51 54 53 55 54 56 57 56 55 54 54 53 50 50 49 50 49 49 50 49 50 49 49 46 43

GFSSE_sfc_30mbdewp_081.txt.gz
Dewpoint
61 65 69 69 69 70 71 70 70 70 70 70 70 68 69 69 69 69 68 68 67 66 65 65 66 66 66 66 66 66 66 66 65 65 65 64 64 64 64 64 63 63 63
62 65 69 70 69 70 71 70 70 70 70 70 69 69 69 69 69 69 69 68 67 67 66 66 66 66 65 65 66 66 66 66 66 65 64 64 63 63 63 63 63 62 61
65 67 66 69 69 71 71 70 70 70 70 70 69 68 69 69 69 69 68 67 66 66 66 66 65 64 64 64 65 65 65 65 64 63 62 61 62 62 62 62 62 61 60
66 64 65 69 69 70 71 70 70 70 70 69 68 69 69 69 69 69 67 66 66 65 65 64 64 64 63 64 64 63 63 64 63 61 58 59 60 61 60 60 60 59 59
65 67 66 68 69 69 70 70 70 69 69 69 68 69 69 69 68 68 67 66 66 65 64 64 64 63 63 63 62 60 60 59 60 56 57 58 58 59 58 57 57 57 57
66 67 68 68 68 68 69 68 68 67 67 68 69 69 69 69 68 67 66 66 65 65 63 63 63 62 63 61 59 58 57 58 58 52 53 55 56 58 57 56 56 56 55
65 67 68 68 68 67 66 64 64 65 67 67 69 69 68 68 67 66 65 65 64 64 64 63 62 62 61 60 58 57 56 54 51 49 50 53 55 56 55 55 55 54 54
64 66 67 67 66 64 63 63 64 62 59 66 66 66 67 67 66 65 64 64 63 64 64 63 62 61 61 59 57 55 53 53 49 48 51 53 55 55 55 54 54 53 53
63 65 67 66 65 64 62 62 64 62 61 65 64 65 65 65 65 64 64 64 64 63 63 62 62 61 60 59 56 54 54 53 48 49 49 53 54 54 54 54 53 53 53
64 65 66 65 65 64 63 63 63 65 65 64 64 65 65 65 64 63 63 64 64 63 62 62 61 61 60 58 55 54 53 51 47 48 49 53 54 53 53 53 53 52 52
62 63 64 64 65 63 63 62 61 62 64 65 63 64 64 65 62 62 61 64 63 63 62 61 61 60 58 57 55 53 51 46 47 47 51 55 54 53 53 53 52 52 52
60 61 62 63 63 63 62 61 61 60 62 63 63 63 63 63 62 61 63 64 63 62 61 61 60 58 53 50 51 53 49 47 45 48 52 55 54 53 53 53 52 52 51
59 60 61 61 62 62 61 61 61 62 63 64 63 63 63 63 63 59 63 63 62 59 55 55 55 48 46 45 48 49 48 47 47 49 54 55 54 53 53 52 51 51 50
58 59 60 61 61 61 61 60 60 61 62 62 63 63 63 62 61 61 61 60 58 52 50 50 48 48 47 45 47 48 48 46 47 50 53 55 54 53 52 51 51 50 50
56 59 60 60 60 60 60 59 59 61 61 62 63 63 62 60 60 59 57 58 53 51 51 48 48 47 47 47 47 48 47 47 47 49 52 54 54 53 52 51 51 50 49
54 55 60 60 60 59 59 60 61 61 62 63 61 62 61 60 59 58 58 55 53 52 50 48 49 48 47 47 47 47 47 48 48 49 51 53 54 54 53 51 50 49 48
53 52 56 59 59 58 58 60 60 60 59 58 58 59 58 58 59 58 57 55 56 54 53 53 49 46 44 45 46 47 48 49 48 49 49 51 52 54 54 53 51 50 48
52 51 56 59 58 58 57 60 59 58 57 57 57 56 55 54 54 54 56 56 56 55 53 51 48 45 43 43 45 46 47 48 49 49 48 50 50 50 53 53 52 51 49
52 51 55 58 57 58 58 60 59 57 56 56 55 54 55 54 53 53 52 53 54 52 53 52 49 47 44 43 44 44 45 46 48 48 48 49 49 49 51 53 53 53 51
51 52 54 57 58 58 58 59 58 57 56 55 53 53 54 54 53 51 50 51 50 50 49 49 47 46 45 42 40 42 44 45 46 46 47 48 49 49 50 52 53 52 53
52 52 54 57 58 57 57 57 56 55 54 53 51 51 51 50 49 48 48 47 46 45 46 48 47 45 43 42 37 40 42 43 44 45 47 47 48 50 50 50 52 51 51
52 52 53 56 57 57 57 57 56 55 54 52 50 47 48 48 45 46 47 50 46 46 47 47 47 47 44 45 41 42 42 42 43 44 44 46 48 47 48 50 51 51 51
52 52 53 56 56 56 56 57 56 54 55 52 51 46 47 50 49 49 52 51 50 51 51 52 51 49 48 48 49 49 48 47 47 45 45 44 45 46 45 49 50 50 52
52 52 53 55 56 56 56 57 55 52 51 51 51 50 48 50 52 53 53 54 54 54 53 53 52 51 51 51 49 50 51 52 49 48 49 49 46 45 46 45 43 45 48
52 52 53 55 54 55 56 56 55 53 52 53 51 49 48 49 50 51 53 54 54 54 54 54 52 53 53 52 52 51 51 52 53 49 47 50 49 48 46 46 43 45 47
51 51 53 54 55 55 55 56 55 54 55 54 52 50 50 49 51 52 52 54 54 53 55 55 55 55 55 54 54 53 52 50 50 49 48 48 50 51 50 49 49 48 47

GFSSE_sfc_30mbdewp_084.txt.gz
Dewpoint
65 68 69 69 70 71 70 70 70 70 70 70 69 69 70 70 69 68 68 67 67 67 65 65 67 67 66 66 67 67 67 66 66 66 65 64 64 64 64 64 63 63 64
65 67 69 69 69 71 70 70 70 70 70 70 69 69 69 70 69 68 68 67 67 66 66 67 66 66 65 66 67 67 66 66 66 66 65 65 64 64 63 63 63 62 62
66 67 67 69 69 70 71 70 70 70 70 70 69 69 69 70 69 69 68 67 67 67 66 66 65 65 65 66 66 66 65 65 65 64 63 63 63 63 62 62 62 62 61
66 66 67 68 69 71 71 70 70 70 70 70 69 69 69 70 69 69 68 67 66 67 66 65 65 64 65 66 66 65 64 64 63 61 60 61 61 62 62 62 61 60 60
65 66 68 67 69 70 71 70 70 70 70 69 68 69 70 70 69 68 67 67 66 67 65 65 64 64 64 64 64 65 64 63 60 59 59 59 60 60 60 59 58 57 57
65 67 67 67 67 69 70 70 69 69 69 69 68 69 69 69 68 67 67 66 66 66 65 65 64 63 62 61 61 61 61 60 57 57 58 59 58 59 58 57 57 56 57
65 66 68 67 68 68 67 68 66 65 64 61 65 68 69 68 67 67 66 65 65 65 65 63 63 62 60 59 60 58 56 55 53 53 56 57 57 57 56 56 56 55 55
63 67 67 67 67 65 65 64 63 63 62 61 60 64 67 68 67 66 65 65 65 65 64 63 63 61 60 59 57 54 54 54 50 53 54 55 56 55 55 55 55 54 54
63 65 66 67 66 63 62 62 63 62 59 61 60 61 66 67 66 65 65 65 65 64 64 62 62 60 59 57 55 53 53 53 51 53 54 54 55 54 54 54 54 54 53
63 65 66 66 66 65 63 62 63 63 62 60 61 64 64 65 64 63 64 65 64 64 63 62 61 60 58 56 54 51 51 52 50 52 54 55 54 54 54 54 54 53 53
61 62 64 65 65 64 64 63 63 64 63 64 62 63 63 64 65 62 64 64 63 63 63 62 61 59 56 54 52 51 54 50 50 53 54 55 53 54 54 53 53 53 52
60 60 63 64 64 64 64 62 62 63 64 64 62 65 64 64 63 62 63 63 63 62 62 61 59 57 54 52 53 53 51 50 51 53 55 55 54 53 53 53 53 52 52
59 60 61 62 63 62 62 63 62 62 65 65 64 64 63 63 64 63 62 62 62 61 60 59 57 53 50 50 51 51 52 50 52 53 55 55 54 53 53 53 52 52 51
58 58 61 61 62 63 63 62 62 62 63 63 63 63 62 62 62 61 61 62 59 58 56 55 52 50 49 48 51 53 49 51 52 54 55 55 54 53 52 52 52 51 50
56 60 60 61 61 61 61 61 61 62 62 62 63 62 62 62 61 62 62 61 57 53 52 51 50 49 49 47 51 50 50 51 52 53 55 55 54 53 52 52 51 51 50
55 60 61 60 61 60 61 60 60 60 62 62 63 63 63 62 60 61 61 60 53 51 50 49 51 50 49 49 50 50 50 51 52 53 54 55 54 53 53 52 51 51 50
53 60 61 61 61 60 60 60 61 61 61 62 63 63 62 62 60 60 59 57 53 52 50 52 51 50 50 49 50 50 50 51 52 52 53 54 54 54 53 52 51 50 50
52 55 60 60 59 59 60 60 59 58 58 59 60 62 60 60 59 58 57 57 57 56 53 52 50 49 49 49 49 49 50 51 52 52 52 53 53 53 54 53 52 51 49
52 53 58 59 58 58 60 59 57 57 57 57 57 57 59 58 57 56 57 58 58 56 54 51 49 48 46 48 48 49 50 51 51 51 51 51 52 52 53 54 53 53 52
52 52 58 58 58 58 59 58 57 56 56 55 55 55 55 56 57 56 56 56 55 54 53 51 48 49 47 46 44 46 49 51 50 50 51 52 52 52 52 52 53 53 52
53 53 57 57 57 58 58 56 55 54 54 54 54 54 54 53 54 55 55 55 54 52 51 49 47 46 44 45 45 46 46 48 49 50 50 50 51 51 53 53 53 52 53
53 53 57 56 57 57 57 57 55 54 54 53 53 53 53 52 53 53 53 53 52 51 50 50 47 47 46 47 44 44 42 43 45 48 49 50 50 51 51 53 53 52 52
53 53 56 56 57 57 57 57 55 54 53 50 50 51 52 52 51 49 50 48 49 48 48 50 49 46 46 47 47 47 45 43 44 46 46 47 48 50 50 51 52 53 53
53 53 53 55 56 57 57 56 54 52 50 49 48 49 50 51 50 47 48 48 51 50 51 49 51 50 51 47 50 52 52 52 48 47 48 46 47 48 48 47 50 51 51
54 54 54 55 56 56 57 55 54 52 49 49 47 46 48 50 51 51 50 52 51 54 54 53 53 52 53 53 49 49 50 53 53 50 48 50 50 47 46 47 47 46 45
53 53 53 54 55 56 57 55 54 52 50 50 48 45 46 50 51 51 54 55 55 55 54 54 54 54 53 53 54 53 51 51 52 51 50 49 50 50 49 47 48 46 45

GFSSE_sfc_30mbdewp_087.txt.gz
Dewpoint
67 70 71 71 70 69 70 70 70 70 70 69 70 70 70 69 69 69 69 68 68 67 66 67 68 67 67 67 68 68 68 67 67 66 65 65 64 64 64 64 64 64 65
68 69 70 71 71 70 70 70 70 70 71 69 70 70 70 69 69 68 68 68 67 66 66 67 67 66 66 67 67 67 67 67 67 66 66 65 64 64 63 63 63 63 64
67 68 69 69 71 70 70 70 70 71 70 69 70 70 70 69 68 68 68 67 67 67 66 66 64 65 66 67 67 66 66 65 65 64 64 63 63 63 62 62 62 61 62
67 67 68 68 70 71 70 70 70 70 70 69 70 70 70 69 69 68 68 68 67 67 66 66 66 65 66 66 66 66 65 64 63 63 62 62 63 62 61 61 61 59 59
66 67 68 68 69 71 70 70 70 70 70 69 69 70 70 69 69 69 68 67 67 67 66 66 65 66 66 65 65 64 64 63 61 60 61 61 62 62 61 59 57 57 56
67 68 67 67 69 71 71 70 70 70 69 67 65 67 70 69 69 68 67 67 66 66 66 65 65 66 66 65 65 64 62 61 59 59 59 60 60 60 58 58 58 57 55
67 67 67 67 68 69 70 70 70 69 64 61 60 59 65 68 68 68 67 66 66 66 66 65 65 64 64 63 62 59 56 59 57 57 58 59 59 59 57 55 56 55 55
66 68 67 67 68 68 68 69 66 64 64 63 62 61 62 66 67 67 66 66 66 66 65 64 63 63 62 60 57 54 55 57 55 56 57 58 58 57 56 55 55 55 55
64 64 67 67 66 66 65 64 64 64 62 62 61 59 61 62 65 66 66 66 66 65 64 64 62 62 59 57 54 54 56 56 54 54 55 57 56 55 55 54 54 55 54
62 64 66 66 64 62 63 63 63 63 62 61 61 62 61 61 64 64 65 65 65 64 63 63 62 60 57 54 52 56 56 55 54 54 55 56 55 54 53 54 54 54 54
60 61 64 66 64 63 62 63 63 63 62 62 62 62 61 64 65 63 65 65 64 63 63 62 61 58 55 52 53 54 52 53 54 54 55 56 54 54 53 54 54 54 53
59 60 63 65 64 64 64 63 62 63 63 63 61 63 62 64 64 64 63 64 64 63 62 61 59 57 52 51 52 52 52 53 54 54 54 55 55 53 54 54 54 53 53
59 60 62 63 64 64 63 62 62 62 63 63 62 63 64 64 63 63 63 63 63 62 60 59 57 54 51 51 51 51 52 53 54 54 55 55 55 53 54 53 53 53 52
59 60 60 62 62 62 62 62 62 62 64 64 61 64 63 63 62 63 62 62 61 60 58 56 54 51 50 51 51 52 52 53 54 55 56 55 54 53 53 53 53 52 52
58 60 60 61 61 62 62 61 61 61 62 64 63 63 63 62 61 61 62 61 59 58 56 54 51 49 49 50 50 52 53 53 54 55 55 55 55 54 53 53 52 52 51
59 59 60 60 61 60 61 61 60 61 62 63 63 63 62 62 61 60 61 60 56 55 53 51 51 48 47 48 50 52 53 53 54 55 55 55 55 54 53 53 52 52 51
59 60 60 60 60 60 60 60 60 61 62 62 63 62 62 61 61 60 61 58 54 52 50 50 50 49 48 48 50 51 52 53 53 54 54 54 54 54 54 53 52 52 51
59 60 60 61 60 60 60 59 59 59 59 61 62 63 62 61 60 61 60 58 53 52 47 51 51 49 49 49 49 51 52 52 53 53 53 54 54 53 53 54 53 52 51
59 60 60 59 59 59 60 58 58 58 58 59 60 62 62 61 60 60 59 57 54 53 50 52 50 50 49 49 49 50 52 52 52 52 53 53 53 53 53 54 53 53 52
59 59 59 58 58 59 58 57 57 56 56 56 56 60 61 61 60 59 58 58 57 55 53 50 49 49 49 48 47 49 50 52 52 52 52 52 53 53 53 53 54 53 52
56 58 58 58 58 58 57 55 54 54 54 54 55 56 59 58 58 57 57 56 55 53 51 49 48 47 48 47 47 48 49 50 50 51 52 52 52 52 53 53 53 52 53
56 57 57 57 57 57 57 56 55 54 54 54 54 55 57 57 57 56 56 56 55 52 50 48 46 46 46 47 46 45 44 46 48 50 51 51 52 52 52 52 52 52 52
54 56 56 56 57 57 57 56 55 54 53 52 52 53 55 56 57 56 56 56 55 52 49 47 46 45 44 47 47 45 43 42 44 46 48 50 50 51 52 53 53 52 52
54 56 56 56 56 56 57 55 53 52 51 51 51 52 52 54 54 54 53 53 52 52 49 49 48 47 46 44 50 52 51 49 43 44 47 46 48 49 50 51 52 53 53
53 55 56 56 56 56 57 55 53 52 51 50 50 50 51 51 50 51 51 50 50 51 50 49 50 49 49 47 46 49 50 52 52 49 45 46 49 48 48 49 50 52 52
53 54 55 55 56 57 56 55 53 52 50 49 48 49 50 50 50 49 49 48 51 51 52 50 51 50 52 51 50 50 49 49 51 51 49 49 47 49 48 47 48 48 48

GFSSE_sfc_30mbdewp_090.txt.gz
Dewpoint
68 71 71 71 70 70 70 69 69 70 69 70 70 70 70 70 70 69 69 69 69 69 68 68 68 68 68 68 68 68 68 67 67 66 66 65 65 65 65 65 65 64 64
68 70 71 70 70 70 70 70 70 70 69 70 70 70 69 69 69 69 69 68 68 68 67 67 67 66 67 68 68 67 67 66 66 66 65 64 64 64 64 64 64 64 63
68 70 71 70 70 70 70 70 70 70 69 70 70 69 69 69 69 68 68 68 68 68 67 66 67 67 66 68 67 67 67 66 66 65 64 63 63 62 61 63 63 62 62
67 68 70 71 70 70 70 70 70 70 69 70 70 69 69 69 69 68 68 67 67 67 66 64 66 66 67 67 66 66 65 65 64 64 63 62 62 61 60 59 60 60 60
67 68 68 70 71 70 70 70 70 70 69 70 70 69 69 69 68 68 68 68 68 67 65 64 65 66 66 66 65 65 64 63 62 62 62 62 62 61 59 59 59 60 59
66 67 67 68 70 70 70 70 70 70 69 70 70 70 69 69 68 68 68 68 67 67 66 65 66 66 66 65 65 64 62 61 60 61 62 62 60 59 57 57 57 58 57
67 67 67 67 69 71 71 70 70 70 68 66 65 65 64 65 65 67 67 67 67 67 66 65 65 65 65 65 63 62 61 60 59 59 60 60 60 58 57 56 55 55 55
66 66 66 67 68 70 71 70 70 68 64 64 62 62 62 63 66 65 66 67 66 66 66 65 66 65 65 61 60 60 59 58 58 58 59 60 60 58 57 55 56 55 55
67 66 67 67 67 68 69 69 68 66 64 64 64 62 62 63 62 64 64 66 66 65 65 65 64 64 61 58 59 59 58 57 56 57 58 59 59 57 54 56 55 54 55
64 65 66 66 65 65 65 66 65 65 64 63 64 62 62 62 61 59 64 64 66 65 64 64 63 61 58 57 59 58 57 56 55 56 56 58 58 57 55 54 55 54 53
61 63 66 64 63 63 63 64 64 63 63 62 62 62 61 61 61 61 64 64 64 64 63 63 61 58 57 59 58 57 55 54 54 55 56 57 54 53 55 55 54 54 54
58 60 64 64 63 62 62 63 63 63 62 62 62 62 61 61 61 62 63 64 64 63 62 62 59 57 55 56 56 55 54 54 54 54 55 56 53 53 53 54 53 54 54
58 60 62 64 64 63 63 62 61 62 63 62 62 63 63 62 63 64 63 63 63 62 61 59 57 54 52 52 53 53 54 53 53 53 55 56 56 55 54 53 54 54 54
58 59 61 62 63 63 63 61 61 61 63 61 62 62 63 63 63 63 63 63 61 60 58 57 55 52 51 52 53 53 53 53 53 54 55 53 55 54 54 54 54 54 53
58 59 60 62 62 62 62 62 62 62 62 62 62 63 63 62 61 62 62 61 60 59 57 55 53 51 49 51 52 53 53 53 54 55 55 53 55 55 54 54 53 53 53
59 59 60 61 61 62 61 60 61 61 63 62 62 62 63 62 61 61 61 60 59 57 56 53 51 50 49 51 52 53 53 54 55 55 55 55 55 55 54 54 53 53 52
58 59 59 59 60 61 60 60 60 60 62 63 62 63 62 62 61 61 60 59 57 56 54 52 51 49 48 50 52 53 53 54 54 54 55 55 55 55 55 54 53 52 52
58 59 60 60 60 59 59 60 60 59 60 62 63 63 62 61 61 61 60 58 55 53 51 50 50 48 48 50 52 52 52 53 54 54 54 54 54 54 54 54 54 53 52
59 59 59 60 59 59 59 59 58 58 58 59 61 62 62 61 60 61 60 57 53 51 49 50 50 47 47 50 51 52 52 53 53 53 53 53 53 53 54 55 54 54 53
60 60 60 59 58 59 58 57 57 57 57 57 58 61 62 61 61 60 60 57 54 50 49 52 50 49 49 49 51 51 52 52 52 52 52 53 53 53 53 54 54 53 53
60 59 59 58 58 57 56 55 55 54 55 55 56 57 61 62 61 60 59 57 54 47 50 52 50 48 49 49 50 50 52 52 52 52 52 52 52 53 53 53 53 52 53
58 58 58 57 57 57 56 56 55 54 54 54 55 56 60 60 60 60 58 57 56 49 52 50 49 48 48 49 48 47 48 49 50 52 52 52 52 52 53 53 53 52 52
57 57 57 57 57 56 56 56 55 54 53 53 53 55 58 59 59 58 58 56 55 52 51 49 48 47 47 48 48 46 44 45 46 49 51 52 52 52 52 52 52 52 52
57 57 57 57 56 57 56 55 53 52 51 52 52 53 56 57 57 57 57 56 55 53 50 48 48 47 47 46 48 50 48 47 45 44 48 50 51 52 52 52 52 52 52
56 56 56 56 56 57 55 55 53 52 52 52 51 52 53 55 57 57 56 56 55 54 51 48 48 48 47 47 47 50 51 51 49 45 43 46 48 49 51 52 52 53 52
55 56 56 55 55 56 55 54 53 52 51 51 50 51 51 51 53 54 54 55 55 54 53 50 50 49 48 48 49 49 49 49 50 49 47 46 45 46 48 49 50 51 53

GFSSE_sfc_30mbdewp_093.txt.gz
Dewpoint
67 70 70 70 70 70 69 69 70 69 70 71 71 71 70 70 70 70 69 69 69 68 67 68 68 67 67 67 68 68 68 67 67 66 66 66 66 66 65 65 65 65 66
68 70 70 70 70 70 69 70 69 70 70 70 70 70 70 70 70 70 69 70 69 68 66 67 69 68 67 67 68 67 67 67 66 66 66 65 65 64 64 64 65 64 64
68 70 70 70 70 70 70 69 69 70 70 69 70 70 70 70 70 69 69 69 69 67 66 67 68 67 67 68 68 67 67 67 66 65 64 63 63 63 63 64 64 63 63
68 70 70 70 70 70 70 70 70 69 70 70 69 69 69 69 69 69 69 69 68 67 66 66 66 67 67 67 67 67 66 66 65 64 62 61 61 62 62 62 62 62 62
68 69 70 69 70 70 70 70 70 70 70 70 69 69 69 69 69 69 68 68 68 67 67 66 67 66 67 66 66 66 65 64 64 63 62 61 61 61 61 61 61 61 61
67 68 69 70 69 70 70 70 70 70 70 70 69 69 69 69 68 68 68 68 68 66 65 67 66 66 66 65 65 64 63 63 62 62 62 62 59 60 58 58 59 60 60
66 67 67 69 70 70 70 70 70 70 70 70 69 68 68 68 68 68 67 67 67 66 66 66 66 66 65 64 64 63 62 61 61 60 60 59 59 59 57 58 57 56 57
66 66 67 67 69 70 70 70 70 70 69 68 67 65 66 65 64 64 64 66 66 65 65 65 65 65 65 64 62 61 61 60 59 59 59 59 60 58 56 57 56 56 56
66 66 66 67 68 69 70 70 69 67 66 65 64 65 65 63 63 63 64 64 64 65 65 65 64 64 63 62 61 60 59 59 59 59 59 59 59 58 58 56 57 55 54
66 65 66 66 66 66 67 69 68 65 64 64 64 64 65 64 65 64 63 64 64 64 65 64 64 62 60 61 60 59 58 58 58 58 59 59 59 57 57 56 54 55 54
64 64 64 64 64 64 65 67 66 65 64 64 64 63 63 62 62 63 63 63 64 63 64 64 63 59 59 61 59 58 56 55 56 56 58 59 57 58 57 57 55 56 55
61 62 64 63 63 63 64 64 63 64 63 63 62 62 62 62 60 61 61 63 64 64 62 63 60 59 60 58 58 56 54 54 55 55 57 58 57 57 57 55 54 54 55
59 60 63 63 62 61 61 62 62 62 61 61 62 62 61 61 61 61 62 62 64 64 62 61 57 57 57 56 54 54 54 54 54 54 56 57 55 56 55 53 53 54 55
56 58 62 63 63 62 62 61 61 61 61 60 61 62 62 60 60 62 62 63 62 62 60 59 54 54 53 53 53 54 53 53 53 54 56 55 54 53 55 54 54 54 54
57 58 60 62 63 63 62 61 60 61 61 61 62 62 62 62 60 62 62 62 61 59 58 56 52 52 52 53 53 53 53 53 53 54 55 56 57 57 54 54 54 54 53
58 58 59 61 62 62 62 62 61 61 62 62 61 62 62 62 61 61 62 61 60 58 57 55 51 50 52 52 53 53 53 54 54 55 54 54 55 56 55 54 54 54 53
58 58 59 60 61 61 61 60 61 61 62 62 61 62 63 62 61 61 61 61 60 57 55 54 51 50 51 52 52 53 53 54 54 54 54 55 54 55 55 55 54 53 53
58 58 59 60 60 60 60 59 59 60 62 62 61 62 62 62 61 61 61 59 58 56 54 52 50 49 50 52 52 53 53 54 54 54 54 54 55 55 54 55 54 53 53
58 58 59 59 59 59 59 59 59 59 60 61 62 62 62 62 62 61 60 59 56 55 53 51 49 48 50 52 52 52 53 53 54 54 54 54 54 54 54 54 54 54 53
58 59 59 59 59 59 58 57 57 57 58 57 59 61 62 61 61 61 60 57 55 53 51 51 48 49 50 52 52 52 52 53 53 53 53 53 53 53 53 54 54 54 54
58 58 59 58 58 58 57 55 55 55 56 56 56 57 60 61 61 61 60 57 55 50 50 51 48 48 50 52 51 51 52 52 52 53 53 53 53 53 53 54 54 53 54
58 58 58 58 58 56 56 55 54 54 55 55 55 56 57 60 61 60 60 57 54 48 49 51 47 48 49 52 50 50 49 50 51 52 52 52 52 52 52 52 53 53 52
58 58 58 57 57 56 55 55 54 54 54 53 54 55 56 59 60 60 59 57 56 49 51 51 47 47 48 49 51 49 48 47 49 50 51 52 52 52 52 52 52 52 52
57 58 57 57 56 55 55 54 53 53 51 52 53 54 56 58 60 60 59 57 56 51 51 51 50 47 48 48 49 49 48 48 47 45 49 51 52 52 52 52 52 52 52
57 57 57 56 56 55 55 54 53 53 52 52 52 53 55 57 58 59 58 58 56 51 53 52 50 49 49 49 48 49 50 49 48 45 45 48 51 52 52 52 52 52 52
57 56 56 55 55 54 55 54 53 52 52 52 52 52 53 55 55 57 57 56 55 53 54 53 51 51 51 49 49 49 49 47 47 46 45 46 48 49 51 52 52 52 53

GFSSE_sfc_30mbdewp_096.txt.gz
Dewpoint
66 69 70 70 70 70 69 69 70 71 72 71 71 70 71 71 71 70 70 69 69 68 69 69 69 69 69 68 68 68 68 67 67 67 67 66 66 66 66 66 66 66 66
67 69 70 70 70 70 69 69 70 71 71 71 71 71 71 70 70 70 70 69 69 69 68 69 69 69 68 68 68 68 68 67 67 66 66 66 65 65 65 66 66 66 66
67 69 70 70 70 70 70 69 69 71 71 71 71 71 70 70 70 70 70 69 68 68 67 68 68 67 67 68 68 68 67 67 66 66 65 64 64 64 64 65 65 65 64
67 69 70 70 70 70 70 70 70 70 70 70 71 71 70 70 70 70 70 69 68 68 67 67 67 67 68 68 67 67 66 66 65 63 62 63 63 63 63 63 63 63 63
68 69 69 70 70 70 70 70 70 70 70 70 70 70 70 70 70 69 70 68 66 66 67 67 67 68 68 67 67 66 65 64 63 61 61 62 62 63 63 63 63 63 62
68 69 69 69 70 70 70 70 70 70 69 69 70 70 69 69 69 69 69 68 67 67 67 66 67 68 67 66 66 65 64 63 62 61 61 62 61 60 61 61 62 62 61
66 68 69 69 69 70 70 70 70 70 70 69 69 69 67 65 65 66 67 66 65 66 66 67 67 67 66 65 65 64 63 62 62 61 60 60 59 59 58 60 61 60 60
65 66 67 69 69 70 69 69 69 69 69 69 68 68 66 65 64 65 65 64 64 65 66 67 67 66 65 64 64 63 62 61 60 59 59 59 60 59 58 57 59 58 57
65 66 66 67 69 70 69 69 69 68 68 68 67 67 66 65 65 64 64 63 63 64 66 66 66 65 64 63 62 62 61 60 59 59 59 59 59 58 57 57 57 55 54
65 65 65 66 67 68 69 69 69 67 66 66 66 66 63 63 62 61 60 62 63 64 65 66 65 64 63 62 61 60 60 60 59 59 59 59 59 58 57 56 57 56 53
64 64 65 65 65 65 66 67 67 66 65 65 65 65 63 63 63 62 62 62 64 63 63 65 64 63 62 61 60 60 58 58 58 58 59 60 58 57 57 54 54 55 57
63 64 64 64 63 64 65 66 65 65 64 64 64 64 63 63 62 63 62 64 62 63 64 64 62 62 61 60 59 57 56 56 56 58 59 59 58 57 57 56 57 57 57
62 62 63 63 62 63 63 64 64 64 64 63 63 63 62 62 61 61 62 63 64 62 63 63 60 60 59 58 56 54 54 55 55 57 59 58 59 57 57 56 57 57 57
59 61 62 62 61 61 61 62 63 62 62 61 61 61 61 61 61 60 61 62 62 62 63 59 58 58 57 55 54 54 54 54 54 56 58 58 58 57 56 55 57 57 56
57 58 61 62 62 61 61 60 61 61 61 60 60 61 61 60 60 60 60 62 62 62 62 57 55 55 55 54 54 54 53 53 54 55 56 56 58 57 55 56 56 56 56
56 56 59 61 62 62 61 60 60 60 61 61 61 61 62 62 61 61 61 61 60 61 60 55 54 54 53 53 53 53 53 53 54 55 55 55 56 57 56 56 56 56 55
57 57 58 60 61 61 61 61 61 61 61 61 61 61 62 62 61 61 61 60 60 60 59 54 52 53 53 53 53 53 53 54 54 54 54 55 56 55 56 57 56 55 54
57 57 58 60 60 60 60 60 60 61 62 62 61 61 62 61 61 61 61 60 60 58 56 52 51 52 52 52 52 53 53 54 54 54 54 55 55 55 55 55 55 54 53
57 58 58 60 60 60 59 59 59 60 62 62 61 61 62 62 61 61 61 60 58 57 55 52 50 51 52 52 52 53 54 54 54 54 54 54 54 54 55 54 54 54 54
58 58 58 59 59 59 58 58 58 58 59 60 62 62 61 62 61 61 61 59 58 55 53 52 49 51 52 52 52 52 53 53 54 54 53 54 54 54 54 54 54 54 54
58 58 58 58 58 58 58 57 56 56 57 57 58 60 61 62 61 61 60 57 57 55 53 51 49 50 52 52 51 51 52 52 53 53 53 53 53 53 54 54 54 54 54
57 58 58 58 58 58 58 57 55 56 55 55 55 56 57 59 61 61 59 57 56 54 52 50 49 50 51 52 50 50 49 50 51 52 53 53 53 53 53 53 54 54 54
56 57 58 57 58 58 57 55 54 54 54 53 54 54 55 57 59 61 59 57 56 54 52 50 49 49 50 52 51 50 48 47 49 51 52 52 52 52 52 53 53 53 53
57 58 58 57 57 57 56 54 53 53 51 52 53 54 55 56 58 60 59 57 57 55 54 52 49 48 50 50 51 50 50 50 48 46 50 51 52 52 52 52 52 52 53
57 57 57 57 57 56 55 54 53 52 52 52 53 53 55 56 57 60 59 58 56 53 53 52 49 48 50 51 50 49 49 49 48 47 46 49 51 52 52 52 52 52 52
57 57 57 56 56 55 55 54 53 52 52 51 52 52 54 56 57 59 59 58 57 54 53 53 51 48 51 50 51 50 49 48 47 45 45 48 49 50 52 52 52 52 52

GFSSE_sfc_30mbdewp_099.txt.gz
Dewpoint
66 67 68 68 70 69 70 71 71 71 70 70 71 71 71 71 71 71 70 70 70 69 69 69 69 69 68 68 68 68 68 68 67 67 67 67 67 67 67 67 66 65 67
66 68 68 68 70 69 69 70 71 71 71 71 71 71 71 71 71 70 70 70 69 69 68 69 70 68 68 68 69 68 68 67 67 67 67 67 66 66 66 67 66 66 67
67 68 69 69 70 69 69 70 71 72 71 71 71 71 71 71 70 70 70 70 69 69 69 69 69 68 68 68 68 68 67 67 67 67 66 64 65 65 66 66 66 66 66
67 68 68 70 70 70 69 69 71 71 71 71 71 71 71 71 70 70 70 69 69 69 69 68 68 68 68 68 68 68 67 67 66 65 63 63 63 64 64 65 65 64 64
66 68 69 70 70 70 69 69 70 71 69 71 71 71 71 70 70 70 69 68 68 68 68 67 68 68 68 68 67 67 66 64 63 62 62 62 62 63 64 64 64 63 62
67 67 69 70 70 70 70 70 69 70 70 69 70 71 70 70 70 68 66 66 68 68 67 67 68 68 68 67 66 65 64 62 61 60 61 62 61 63 63 63 63 63 62
67 68 68 69 70 69 69 70 70 69 70 70 70 70 70 65 66 65 65 64 65 66 67 67 68 68 67 66 66 64 63 62 59 59 59 59 60 61 62 62 62 62 61
67 68 69 69 69 69 69 69 69 69 69 69 68 68 66 66 66 64 65 65 65 65 65 66 67 67 66 66 64 63 62 61 59 58 58 58 60 60 61 61 61 60 59
67 67 68 69 69 69 69 69 68 69 69 68 67 67 66 66 65 65 65 65 64 64 65 65 67 66 66 65 63 62 61 61 59 58 58 58 60 59 59 59 59 58 58
66 66 66 69 69 69 69 69 68 68 68 68 66 66 66 65 65 64 65 64 63 64 65 65 66 65 64 63 62 61 61 60 59 58 58 58 60 58 58 56 57 57 57
65 66 66 66 67 69 69 69 68 68 67 67 66 66 65 63 62 64 63 64 64 64 64 64 65 64 63 62 62 61 60 59 59 58 57 59 60 59 58 57 56 57 56
64 65 66 66 66 67 67 67 67 67 66 66 66 65 65 64 64 62 61 62 63 63 64 65 65 63 62 61 61 59 59 59 58 58 57 60 60 59 57 56 56 57 58
63 64 65 65 65 65 65 65 65 65 65 64 65 64 64 63 63 63 64 63 63 62 63 64 63 62 61 60 59 58 58 58 58 57 58 59 60 58 55 56 57 58 57
62 64 63 64 64 64 65 63 64 65 65 64 64 63 63 62 62 62 63 63 64 63 62 63 63 61 60 59 58 58 57 57 57 57 57 59 59 58 57 57 58 58 57
60 62 63 63 63 63 63 64 64 64 63 63 62 62 63 62 62 62 62 62 63 63 62 61 60 59 59 58 57 57 56 56 56 56 56 58 58 58 56 56 57 57 56
59 60 63 62 63 63 62 63 62 63 63 62 62 62 62 61 61 60 61 61 62 63 60 59 59 59 57 57 56 56 55 55 55 56 55 56 58 57 58 57 56 55 55
58 58 60 62 62 62 62 62 62 62 62 61 61 61 61 61 61 61 60 60 61 62 59 58 58 57 56 56 55 55 55 55 54 55 54 55 56 56 58 58 57 56 55
57 57 58 61 61 61 61 62 62 61 61 61 61 61 61 62 61 62 60 61 61 59 57 57 56 55 55 54 54 54 53 54 54 55 54 53 55 54 57 58 57 57 56
56 57 57 60 61 61 62 62 62 61 60 61 62 61 61 62 62 61 61 60 60 58 56 56 56 55 54 54 54 53 53 53 54 53 53 54 55 54 54 56 56 55 55
56 58 58 59 60 60 62 61 61 61 61 61 62 62 62 62 61 61 61 60 59 57 55 55 55 55 54 53 52 53 53 53 53 53 53 53 54 54 54 53 54 53 54
56 58 58 59 59 59 59 58 58 58 59 60 60 61 62 62 61 60 60 59 58 56 55 54 54 54 54 54 52 52 53 54 54 54 54 53 53 54 54 53 52 52 53
53 57 58 58 58 59 59 59 58 58 58 58 59 59 61 61 62 61 59 59 58 57 55 53 53 53 53 53 51 51 49 51 53 53 53 53 53 53 54 54 54 53 52
52 56 57 58 58 59 59 58 56 55 55 55 56 57 57 59 61 61 60 59 58 57 54 52 52 52 52 53 53 50 49 48 50 52 53 53 53 53 53 53 54 54 54
52 56 57 58 58 58 58 56 55 54 53 54 55 55 56 56 58 60 60 59 57 56 55 53 52 52 52 51 52 51 52 51 48 48 51 52 53 53 53 52 53 53 54
53 56 57 58 58 58 57 57 55 54 54 54 54 54 55 56 56 57 59 58 57 56 55 54 52 51 52 52 51 51 50 52 51 49 47 50 52 52 52 53 52 53 53
55 56 57 57 57 57 56 56 54 54 53 52 53 53 54 55 56 56 59 58 57 56 56 55 53 51 51 52 52 50 50 49 48 48 48 49 49 50 52 52 53 53 53

GFSSE_sfc_30mbdewp_102.txt.gz
Dewpoint
63 64 68 69 70 70 71 71 71 72 71 71 71 71 71 71 71 71 71 72 71 70 69 69 69 68 68 68 68 69 69 69 68 68 68 68 68 67 67 67 66 65 67
63 65 68 69 70 70 70 71 71 71 71 71 71 71 71 71 71 71 71 71 70 70 69 69 69 69 68 69 69 69 69 68 68 68 68 67 67 66 66 66 66 66 67
64 65 67 68 70 69 70 71 72 71 71 71 71 71 71 71 71 70 70 70 70 69 69 69 69 69 68 69 69 68 68 68 68 68 66 64 65 66 67 67 67 67 66
63 65 66 68 70 69 70 71 72 72 71 71 71 71 71 71 71 70 70 70 69 69 69 69 69 69 69 69 68 68 68 67 67 66 64 63 64 66 66 66 66 65 65
62 64 66 68 70 69 69 70 71 72 72 71 71 71 71 71 70 70 69 68 68 68 68 67 68 68 69 68 68 68 67 66 65 64 62 63 63 65 65 65 65 64 63
62 63 68 69 69 69 69 69 71 71 70 71 71 71 71 70 68 67 66 65 65 66 66 68 68 69 68 68 67 66 65 64 63 60 62 62 62 64 64 64 64 64 63
63 64 68 69 69 70 69 69 70 70 69 69 70 71 70 68 66 64 64 64 64 64 65 66 67 67 67 67 66 64 63 62 59 58 59 60 63 64 63 63 63 63 63
66 67 67 69 69 69 69 69 69 69 70 68 70 69 66 66 66 66 64 63 62 63 63 65 64 66 67 66 65 63 62 60 57 56 56 60 63 63 63 62 62 61 61
67 68 68 68 69 69 68 69 69 69 69 69 69 67 65 67 66 65 65 65 63 64 63 66 66 66 66 65 64 62 61 59 56 56 55 58 61 62 62 61 60 60 59
67 67 67 67 68 68 68 68 68 68 68 68 67 67 66 66 66 66 66 65 65 64 63 64 66 65 65 64 63 62 60 59 57 56 55 58 60 61 60 60 59 59 58
65 65 67 66 67 67 67 68 68 68 68 67 67 66 65 64 64 64 62 65 65 64 64 64 64 62 64 63 62 61 60 57 57 55 57 60 60 59 58 59 58 58 57
63 64 65 66 65 67 66 68 68 68 68 67 65 64 63 62 62 60 61 65 64 64 63 61 60 63 63 62 61 61 58 58 56 56 58 61 60 59 58 57 59 58 57
60 63 64 65 66 65 64 67 68 68 68 67 67 65 65 64 63 61 61 62 61 63 63 60 62 63 62 62 61 60 58 58 54 55 58 61 60 59 59 56 57 58 58
58 62 65 65 65 66 63 66 66 66 67 66 66 66 66 65 65 64 63 61 62 61 62 62 63 62 62 61 60 59 57 54 54 56 58 60 60 58 57 57 58 58 58
58 61 65 65 64 64 64 63 65 65 65 65 65 65 65 64 63 62 62 62 61 64 63 63 63 62 62 61 59 58 56 54 53 54 56 60 59 58 57 58 58 58 57
55 58 63 64 64 63 62 62 61 63 64 64 64 64 64 64 63 63 62 62 63 63 63 63 62 62 61 60 58 56 55 55 54 53 56 58 59 58 59 57 58 57 57
52 57 61 63 64 63 62 62 61 59 63 64 64 64 64 63 63 62 62 62 62 63 61 61 61 61 60 59 56 56 55 55 53 51 54 56 57 57 57 58 58 56 56
48 54 59 62 62 63 62 62 60 59 62 62 63 63 63 63 62 61 61 61 61 62 61 59 59 59 60 58 56 55 54 53 52 51 49 54 55 54 57 57 57 57 57
47 52 57 61 62 63 63 62 61 62 62 62 62 62 62 61 61 61 61 61 62 59 60 59 58 58 58 56 55 54 53 52 52 52 50 50 53 53 54 57 57 57 57
46 52 56 59 61 62 62 62 60 62 61 61 62 62 62 61 61 61 61 60 59 57 57 58 57 57 58 56 54 53 53 51 52 52 51 49 52 53 53 55 56 55 56
42 51 55 57 60 61 62 61 60 60 60 61 62 61 61 62 61 61 61 59 58 56 56 56 56 56 56 56 54 53 53 53 52 53 53 50 49 52 52 53 53 52 53
38 49 54 56 59 61 60 59 59 60 60 60 60 61 61 62 62 61 60 60 58 57 56 56 56 55 55 56 53 51 51 52 53 53 53 52 49 49 50 51 52 49 49
38 46 52 54 57 59 58 58 58 59 59 59 59 59 61 61 62 61 60 59 59 57 56 56 56 56 54 55 55 51 50 49 51 52 53 52 51 49 49 51 51 51 51
36 44 50 53 56 59 59 58 57 56 56 56 57 57 59 60 61 61 61 60 58 57 56 56 56 56 54 52 54 52 50 49 48 49 51 52 53 52 50 49 49 51 50
33 44 50 53 55 58 59 58 57 55 55 55 56 57 57 57 59 60 60 60 59 58 57 56 56 56 55 53 52 52 52 52 49 46 47 51 52 52 50 51 49 50 51
32 43 52 53 55 57 59 58 57 56 55 54 55 54 55 55 55 56 58 59 59 58 57 56 54 55 54 54 54 53 52 52 50 48 45 48 50 50 50 50 51 51 51

GFSSE_sfc_30mbdewp_105.txt.gz
Dewpoint
56 64 69 70 70 70 71 71 71 71 71 71 71 71 72 72 72 72 72 72 71 71 70 70 69 69 69 68 68 70 69 69 69 69 69 68 67 67 67 67 66 66 67
57 64 68 70 70 70 71 71 71 72 71 71 71 72 71 72 72 72 72 71 71 71 70 69 69 69 68 68 70 69 69 69 69 68 68 68 67 66 66 66 66 67 67
59 64 67 70 70 70 70 71 72 72 71 71 71 71 71 71 71 71 71 71 70 70 69 69 68 69 69 69 69 69 69 68 68 68 67 64 65 67 67 67 67 67 67
56 64 65 69 70 70 71 71 71 72 72 72 71 71 70 71 71 71 70 70 69 68 69 69 68 69 69 69 68 68 68 68 67 66 64 64 65 67 66 67 67 66 66
54 60 65 68 69 69 70 71 72 72 72 72 71 71 71 71 70 69 70 69 67 68 67 67 67 69 69 68 68 68 67 66 66 65 64 63 63 66 66 66 66 65 64
53 57 68 68 69 69 70 71 72 72 72 71 71 71 71 70 68 68 68 68 67 66 67 67 66 67 68 68 68 67 66 66 65 62 63 63 63 65 65 65 65 64 64
55 59 68 69 69 69 69 70 71 71 71 70 70 71 71 69 68 68 67 66 66 66 65 66 67 68 68 67 66 66 65 65 63 63 61 62 64 65 65 64 64 64 63
59 62 68 69 69 69 69 69 70 70 69 69 70 70 69 68 68 66 66 66 66 65 64 67 67 68 67 66 65 65 64 63 62 61 62 63 65 64 64 64 64 63 62
63 65 68 68 68 69 69 68 68 69 69 69 69 69 67 67 66 66 66 64 64 65 65 65 65 67 67 66 65 64 63 61 60 59 60 61 64 63 63 62 61 61 60
65 66 67 67 67 67 67 68 68 68 69 69 68 68 67 66 65 66 65 64 64 62 65 64 65 66 66 65 63 62 60 60 57 57 58 60 63 63 62 61 61 59 59
63 65 66 66 66 66 67 67 67 68 68 68 68 67 66 65 65 65 63 63 64 64 65 64 64 64 64 64 63 61 60 56 57 58 58 62 62 62 61 60 60 59 58
59 62 63 64 64 65 66 67 67 66 66 66 64 65 66 63 64 63 63 64 64 65 64 63 61 63 63 64 63 62 59 59 58 58 58 61 61 60 60 59 59 58 58
55 59 61 63 63 65 65 66 65 66 67 66 66 64 64 63 64 63 63 62 62 64 62 60 61 62 62 62 62 60 59 59 58 57 59 61 60 59 59 59 58 58 58
52 57 59 61 63 64 61 65 66 65 66 65 66 66 65 65 64 64 62 62 62 62 61 62 62 62 62 62 62 60 59 58 58 58 60 61 61 60 58 58 58 58 59
49 54 59 61 63 63 63 62 62 63 65 66 65 65 65 64 64 64 63 62 60 62 62 63 63 62 61 61 62 60 59 57 58 58 59 60 60 60 58 57 58 58 59
45 52 58 62 63 63 63 62 62 63 63 65 65 64 65 64 64 63 63 62 62 63 64 63 63 61 61 61 61 60 58 53 56 57 57 58 60 59 58 58 58 58 57
39 47 58 63 63 63 62 62 62 60 61 64 65 64 64 64 63 63 63 62 62 63 63 63 63 62 62 63 61 59 55 51 53 56 56 56 58 58 59 59 59 57 57
34 43 54 61 63 63 61 61 61 58 59 63 63 64 64 64 63 63 62 62 62 63 63 63 62 60 61 61 59 57 53 52 50 54 54 55 57 55 58 58 59 58 58
31 39 50 59 63 63 62 61 61 59 59 58 61 62 63 63 63 62 62 62 62 61 62 61 61 60 60 60 60 55 54 52 50 47 55 55 55 55 54 58 58 58 58
31 39 47 57 62 63 62 61 60 59 62 60 60 60 61 62 63 61 61 61 61 61 61 60 59 60 59 59 59 54 53 52 49 50 48 53 55 54 53 55 56 56 57
31 41 48 54 61 62 62 60 59 60 61 61 62 61 61 60 61 61 61 61 60 59 58 59 58 58 59 59 57 54 53 53 53 53 51 47 50 52 51 56 55 54 55
32 38 48 52 58 61 62 59 57 61 60 60 61 60 60 58 60 60 61 60 58 57 57 57 57 57 57 59 55 53 52 53 53 53 53 51 51 50 52 55 55 53 52
32 36 42 50 54 60 60 59 59 60 59 59 60 60 60 60 61 61 61 60 58 57 56 56 57 57 56 57 55 52 50 50 51 53 53 52 51 50 50 52 53 50 50
33 36 39 47 51 56 59 58 58 57 57 58 59 59 59 60 60 61 61 60 59 57 57 57 57 57 56 55 55 56 52 53 49 49 53 53 53 50 50 50 49 50 49
31 36 41 43 49 54 59 58 58 57 57 57 57 58 58 59 59 61 61 60 59 58 57 57 57 58 57 55 54 55 54 52 51 47 47 51 53 53 49 49 48 49 50
33 34 39 44 47 52 58 58 58 57 56 55 55 56 57 58 58 58 61 60 59 59 58 58 58 58 57 56 55 54 52 51 51 49 47 50 51 52 52 51 50 50 50

GFSSE_sfc_30mbdewp_108.txt.gz
Dewpoint
61 68 70 70 70 71 71 72 71 71 71 72 72 72 72 72 72 72 72 72 71 71 71 70 70 70 69 69 69 69 70 70 70 69 69 68 67 67 68 68 67 67 68
63 66 70 70 70 71 71 71 71 71 72 72 72 72 71 71 72 72 72 71 72 71 70 70 70 70 69 69 70 69 69 69 69 69 69 68 67 67 67 67 67 68 68
63 67 68 70 70 70 70 71 71 72 72 72 71 72 71 71 72 72 71 71 71 69 70 69 69 69 69 70 69 69 69 69 68 67 66 66 67 67 68 68 68 68 67
63 65 68 70 69 70 71 71 72 72 72 72 71 72 71 71 71 71 71 70 69 68 68 68 69 69 69 69 69 69 68 68 67 66 65 66 67 67 67 67 67 67 67
62 63 68 69 69 70 71 72 72 72 72 72 71 72 71 71 70 70 70 70 68 68 68 67 68 69 69 69 68 68 67 66 66 65 65 66 66 66 66 66 66 66 65
58 64 68 69 69 70 71 72 72 72 71 71 71 71 71 70 69 70 69 69 68 67 68 68 68 69 68 68 68 67 66 65 65 64 64 65 65 66 66 66 66 65 64
64 68 68 68 69 69 70 71 72 71 71 71 71 71 71 70 69 69 69 68 67 67 68 68 68 68 68 68 67 66 66 65 64 64 63 65 65 65 65 65 65 65 63
68 69 68 69 69 68 69 70 71 71 71 70 69 70 71 70 69 68 68 68 67 67 67 67 68 68 67 67 66 66 65 65 64 63 64 65 66 65 65 64 64 64 63
66 70 69 68 68 68 68 68 70 70 69 68 68 69 69 69 68 68 67 67 67 66 66 67 68 67 67 66 66 65 64 64 62 64 64 65 65 64 64 63 62 62 61
67 70 69 68 68 68 68 68 68 69 69 69 69 69 68 68 67 67 66 66 65 65 65 65 66 67 66 65 65 64 63 63 61 63 64 64 65 64 63 62 62 61 60
66 67 69 68 68 68 68 68 68 68 68 68 68 68 68 67 67 66 65 64 64 63 65 66 66 65 63 63 63 63 62 61 60 59 62 65 64 63 62 62 61 60 59
64 66 67 67 67 68 66 68 67 68 67 68 68 68 68 67 67 65 64 64 64 63 64 65 65 64 63 64 64 63 62 61 60 59 62 64 63 62 62 61 60 59 59
62 64 64 66 67 67 65 68 67 67 67 67 66 67 67 66 66 65 65 64 64 64 65 64 63 63 62 62 63 62 62 61 60 60 62 63 63 62 61 60 59 58 59
57 60 62 65 67 66 65 67 66 66 67 67 67 66 66 65 64 65 64 64 63 63 63 62 62 63 62 61 60 61 61 59 59 59 61 62 62 61 60 59 59 58 59
53 58 60 63 65 67 66 65 66 66 66 66 66 67 66 66 65 65 64 64 63 64 63 62 62 62 61 61 61 61 60 60 59 59 60 61 61 61 59 59 58 58 59
47 55 60 61 65 66 65 66 65 66 65 65 65 65 66 66 65 64 64 63 63 64 64 64 63 62 61 61 60 61 61 60 59 59 60 61 60 60 59 58 59 58 58
39 50 61 61 66 65 65 65 64 64 64 64 64 63 66 66 65 64 64 63 63 64 64 63 63 62 61 61 60 60 61 59 59 58 59 60 60 59 59 59 59 59 58
34 38 61 62 64 65 65 65 63 64 64 63 64 65 63 64 65 64 63 63 63 63 63 63 62 62 61 61 60 60 61 59 57 57 57 59 58 58 59 60 60 59 59
28 37 62 64 64 65 65 64 64 63 63 64 64 63 64 64 64 64 63 63 63 63 63 63 62 61 60 60 60 60 61 57 57 56 57 58 58 57 58 59 59 59 59
26 33 60 64 64 65 65 64 63 63 61 61 62 63 63 63 64 64 63 62 62 62 62 62 60 61 60 59 60 60 60 55 53 55 56 57 57 56 56 58 58 58 58
28 33 53 63 64 64 64 63 62 61 61 61 61 61 62 62 63 63 63 61 62 62 61 60 60 59 59 60 59 58 57 56 53 55 56 56 56 55 56 57 57 57 58
29 36 46 61 64 64 63 62 62 62 62 62 62 61 62 62 62 63 62 61 60 59 59 59 59 58 58 60 57 55 52 52 53 52 52 54 54 54 55 56 56 55 56
35 40 41 50 63 63 63 62 61 62 61 60 61 61 61 61 60 62 62 60 59 58 57 58 58 58 56 58 57 54 51 49 51 53 53 53 53 52 53 54 56 55 55
38 42 41 46 56 62 62 61 59 60 59 59 60 59 60 61 60 62 61 60 58 58 57 57 58 57 57 56 57 56 54 52 50 50 53 53 54 53 52 54 55 54 53
39 39 45 43 50 58 62 60 59 60 60 59 59 59 59 61 61 61 61 60 58 57 57 57 57 57 57 56 55 55 54 53 52 50 50 52 54 53 54 53 52 53 52
41 41 40 45 47 53 61 61 59 60 59 58 59 59 59 58 60 61 61 60 59 57 57 57 57 57 57 57 57 56 54 51 50 49 48 51 51 52 53 53 52 53 52

GFSSE_sfc_30mbdewp_111.txt.gz
Dewpoint
67 70 70 70 71 71 71 70 71 71 71 71 71 71 71 71 71 72 71 72 72 72 71 70 70 70 69 69 70 70 70 69 68 68 69 69 68 68 69 69 68 68 69
68 70 70 70 70 71 71 71 70 71 71 71 71 71 71 71 71 71 71 71 72 71 70 70 70 70 70 70 70 70 70 69 69 69 68 68 68 67 68 68 68 68 68
67 70 70 70 70 70 70 71 71 71 72 72 71 71 71 71 71 71 71 72 72 71 70 69 69 69 70 70 69 69 69 69 68 68 67 67 67 68 68 69 68 68 67
67 69 69 70 70 70 70 71 72 72 72 71 71 71 71 71 71 71 71 71 69 70 70 69 69 69 70 69 69 69 68 68 67 67 67 67 67 68 67 68 67 67 67
66 68 69 69 69 70 71 71 72 72 72 71 71 72 71 71 71 71 70 70 69 69 69 69 70 70 69 68 68 68 67 67 66 66 66 66 67 67 67 67 67 67 66
65 68 69 68 69 70 71 71 72 70 71 71 71 72 71 71 71 70 69 69 69 69 69 69 69 69 68 68 68 67 66 66 65 65 65 66 66 66 66 66 66 66 65
67 67 68 68 69 70 71 71 71 70 70 71 71 71 71 70 70 69 69 69 68 69 69 69 69 68 68 67 67 66 65 65 65 64 65 65 66 66 66 65 65 64 64
66 67 68 68 69 69 71 71 71 71 71 71 71 71 71 70 69 69 69 68 68 68 68 69 68 68 68 67 66 66 65 65 64 64 65 66 66 65 65 65 64 64 63
68 67 68 68 68 69 69 70 71 71 70 68 68 69 70 69 68 68 69 68 67 67 67 68 68 67 67 67 66 65 65 64 62 65 65 64 65 65 65 64 63 63 62
68 68 67 68 68 67 68 69 69 70 69 67 67 68 69 69 68 67 67 68 67 66 67 67 67 67 66 66 65 64 64 63 62 63 64 65 66 64 64 63 62 62 61
69 68 68 68 68 67 67 67 68 69 69 68 68 69 68 68 68 67 66 66 66 66 66 66 66 66 65 64 63 63 62 62 62 64 65 65 65 64 63 62 62 60 59
67 68 68 67 67 67 67 67 67 68 68 68 68 68 68 67 67 66 65 65 65 64 65 66 65 64 63 62 62 63 62 61 61 63 63 64 64 63 63 61 61 59 58
66 68 68 68 68 67 67 67 67 67 67 67 68 67 67 67 66 65 64 64 64 62 65 65 65 63 62 62 62 62 61 62 61 62 63 63 63 63 62 61 60 59 59
65 66 67 67 67 67 66 67 67 67 66 66 66 67 67 66 66 65 64 63 63 64 64 64 63 62 61 62 62 61 60 62 62 62 62 63 63 63 61 60 59 59 58
63 64 66 67 67 66 65 67 67 66 67 67 66 66 66 65 64 64 64 64 63 64 63 62 62 61 60 60 60 60 60 60 61 61 63 62 63 62 61 59 59 59 58
60 62 64 65 66 66 65 67 66 66 67 67 66 66 65 65 64 64 64 64 63 64 63 62 62 61 60 60 59 60 61 61 61 61 61 62 62 62 61 60 58 58 58
52 60 62 64 66 65 65 66 65 65 65 65 65 66 66 66 65 64 63 63 63 63 63 62 62 61 60 60 60 60 60 60 61 60 60 61 61 60 60 60 59 59 59
28 57 61 63 65 66 64 65 65 64 64 64 63 64 64 66 64 64 63 63 63 63 63 62 62 61 60 60 60 60 60 61 62 60 60 60 60 59 59 60 60 60 60
22 42 60 63 64 65 64 65 64 64 63 63 64 64 63 65 65 63 63 63 63 62 62 62 61 61 59 60 60 60 60 61 61 59 59 59 59 58 59 60 60 60 60
23 35 60 62 65 64 65 64 63 64 64 63 63 63 62 63 64 64 63 63 62 62 62 62 61 61 60 60 60 59 59 61 61 58 58 58 58 58 58 59 59 59 59
24 36 61 62 64 64 64 63 63 62 63 63 63 63 62 63 64 63 63 62 62 62 62 62 61 60 60 60 59 59 59 59 59 58 57 57 57 57 57 59 59 58 58
27 30 61 63 64 64 64 63 63 62 61 61 62 63 63 62 63 63 62 62 62 61 61 61 60 59 59 60 57 57 53 54 57 57 57 57 56 56 57 58 58 57 57
33 31 59 63 64 64 63 63 62 62 61 60 60 61 61 62 62 63 62 61 60 60 59 60 59 57 56 59 59 54 51 50 53 54 55 56 55 55 56 57 57 56 56
40 41 51 64 64 64 63 62 61 61 60 60 60 60 60 61 62 62 61 60 59 58 57 58 59 58 57 57 57 57 55 52 49 50 54 53 54 54 55 56 56 55 56
51 52 53 50 64 63 63 62 61 60 61 60 60 60 60 60 60 62 60 59 58 57 57 56 57 58 58 57 56 55 54 53 53 50 49 52 54 54 53 54 56 55 55
47 48 50 53 52 63 62 61 60 60 60 59 59 59 59 60 60 61 60 59 58 57 57 56 57 58 57 57 56 55 53 52 52 51 51 52 51 53 53 54 54 55 54

GFSSE_sfc_30mbdewp_114.txt.gz
Dewpoint
66 69 71 71 71 71 70 71 70 70 71 71 70 70 71 72 72 72 72 72 72 72 70 70 70 70 69 69 69 69 68 68 68 70 69 69 69 69 69 69 69 69 69
67 69 71 71 71 70 70 71 71 70 71 71 70 70 71 71 71 72 72 72 72 71 70 70 70 70 70 69 70 70 69 68 69 69 69 68 68 68 68 69 69 69 69
68 69 70 71 71 71 70 70 71 71 71 71 71 71 71 71 71 71 72 72 72 71 70 70 70 70 70 70 70 69 69 69 69 69 69 68 68 68 68 69 69 68 68
68 69 69 70 70 71 71 71 71 71 71 71 71 71 71 71 71 71 71 72 72 71 69 69 70 69 69 69 69 68 69 68 68 68 67 68 67 67 68 68 68 67 67
68 69 69 69 69 70 70 71 71 72 71 71 71 71 71 71 71 71 71 69 70 71 70 70 70 69 69 68 68 68 67 67 67 67 67 67 66 67 67 67 67 67 67
67 68 69 69 69 70 70 71 71 71 71 71 71 71 71 71 71 70 70 69 69 70 70 70 70 69 68 68 68 67 67 66 66 66 66 67 66 67 67 67 66 66 65
66 68 68 69 69 70 71 71 71 69 70 71 71 71 71 71 71 70 69 69 69 70 70 70 70 68 68 67 67 66 66 65 65 65 66 66 65 66 66 66 66 65 65
66 67 68 68 69 70 71 71 70 69 69 70 71 71 71 70 70 69 69 69 68 69 69 69 68 68 67 67 66 65 65 65 65 65 65 64 65 66 66 65 65 64 64
66 67 67 68 69 70 70 70 70 70 70 70 70 71 70 69 69 69 69 68 68 68 68 68 68 67 67 67 66 65 64 63 64 65 63 65 67 66 65 64 64 64 63
66 66 67 67 68 69 70 70 70 70 69 68 70 70 70 69 68 68 68 68 67 67 68 68 67 67 67 66 65 64 64 62 62 64 64 65 66 66 65 64 63 63 62
65 66 66 67 67 67 68 69 70 70 68 67 67 67 69 68 68 68 68 68 67 66 67 67 67 66 66 66 64 64 64 62 63 64 64 64 64 65 64 63 62 62 61
65 65 66 66 66 66 67 68 68 69 68 67 67 68 68 68 67 67 67 67 67 66 66 66 66 66 65 64 63 63 62 61 62 63 64 64 64 64 63 62 62 60 60
66 66 66 66 66 66 66 66 67 67 67 67 67 67 67 67 67 66 65 65 65 65 66 66 65 64 62 61 61 61 61 61 62 63 63 63 63 63 63 62 60 58 58
67 66 66 66 66 66 66 65 66 66 66 66 67 67 67 66 66 65 64 64 63 63 65 64 63 62 61 61 61 61 61 61 61 63 63 63 63 63 62 61 59 59 58
66 67 67 67 66 67 67 66 65 65 65 65 66 66 66 66 65 65 64 63 63 63 63 63 62 62 61 60 61 61 60 61 61 62 63 62 63 63 62 60 59 59 58
64 66 67 67 67 67 66 66 66 66 66 66 65 65 66 65 65 64 64 63 63 63 63 62 62 61 60 60 60 60 59 60 61 61 63 62 62 63 62 61 59 59 58
63 65 66 67 67 66 65 66 66 66 66 66 66 66 66 65 64 64 64 64 63 63 62 62 61 60 59 59 58 59 60 61 61 61 62 63 63 62 61 61 60 60 58
61 63 65 66 66 66 65 66 66 66 66 66 66 66 65 65 64 63 63 63 63 63 62 61 61 60 59 59 59 59 60 60 61 61 62 62 62 61 61 61 60 60 60
39 59 63 65 66 65 65 65 65 65 65 65 65 65 65 65 65 64 63 62 63 62 62 61 61 60 59 59 59 59 60 60 61 61 61 61 60 60 60 60 60 60 60
24 45 61 63 64 65 65 65 65 64 64 64 63 64 64 65 64 63 63 62 63 63 61 61 61 60 60 59 59 59 59 60 61 61 60 60 59 59 59 60 60 60 60
26 32 58 62 63 65 64 64 63 63 63 63 63 63 62 63 64 63 63 62 62 62 62 62 61 60 59 60 59 59 58 59 60 60 60 59 58 58 58 59 59 59 59
32 35 56 61 63 64 64 64 63 63 63 63 63 63 63 62 63 63 62 62 62 61 61 61 61 60 60 60 57 56 53 55 58 59 59 58 57 57 57 59 59 58 58
51 51 57 61 64 64 64 64 63 62 62 62 62 62 62 62 62 63 62 62 61 61 60 60 60 59 58 59 58 55 52 51 55 57 58 57 57 56 57 58 58 58 58
47 50 51 57 63 64 64 63 62 61 60 61 61 61 62 62 62 63 62 61 61 61 60 60 60 59 57 56 58 58 55 54 51 51 56 57 56 56 56 57 57 57 57
44 46 48 50 53 63 63 63 62 61 61 60 60 60 61 61 62 62 61 61 60 59 58 59 59 58 58 56 56 56 56 54 54 52 51 53 55 55 55 56 56 56 56
41 43 45 46 48 51 57 63 62 61 61 60 60 59 60 60 60 61 61 60 59 58 57 57 57 58 57 57 57 56 54 53 52 52 52 53 53 54 54 55 56 56 55

GFSSE_sfc_30mbdewp_117.txt.gz
Dewpoint
66 70 71 71 71 71 70 70 70 70 70 71 71 71 71 71 72 72 72 72 72 71 70 70 70 70 69 68 67 67 68 69 70 70 70 69 68 69 69 69 69 69 68
67 70 70 71 71 71 70 70 70 70 70 71 71 71 71 71 72 72 72 72 72 70 70 70 70 70 69 69 69 69 68 69 70 69 69 69 68 68 68 69 69 68 68
67 70 70 71 71 71 71 70 70 71 70 70 71 71 71 72 72 72 72 72 71 70 70 70 70 70 69 69 69 69 69 69 69 69 69 68 68 67 68 69 68 68 68
68 70 70 70 70 71 71 71 71 71 71 71 71 71 71 72 72 72 72 72 71 71 70 70 70 69 70 69 69 69 69 69 69 68 68 68 67 67 68 68 68 67 67
68 69 70 70 71 70 70 70 71 71 71 70 70 71 71 71 71 72 72 72 71 71 70 69 69 69 69 68 69 68 68 68 68 67 67 67 67 67 67 67 67 67 67
67 68 69 69 70 71 70 70 71 70 70 70 70 70 71 71 71 71 70 70 71 70 70 69 69 69 68 68 68 67 67 67 66 66 67 66 66 67 67 67 68 67 67
67 68 68 68 69 70 70 71 71 70 70 70 70 70 71 71 71 70 69 69 70 71 70 70 69 68 68 67 67 67 66 66 65 66 66 65 66 66 67 66 66 66 66
67 68 68 68 69 69 70 71 70 70 70 70 70 70 71 71 70 69 69 69 69 70 70 70 68 67 67 67 67 66 65 65 65 65 65 65 64 65 66 66 65 65 64
66 67 68 68 69 70 70 70 69 69 70 70 70 70 70 70 70 69 69 68 68 69 69 68 68 67 67 67 66 65 64 65 64 64 64 64 64 64 65 65 65 64 63
66 66 67 68 69 69 70 69 68 68 69 69 70 69 69 69 69 69 69 68 68 68 68 68 67 67 67 66 65 64 63 64 64 64 64 64 64 66 66 65 64 64 63
65 66 66 67 68 68 69 69 69 69 69 69 69 69 69 68 68 68 68 68 67 68 68 67 67 67 66 65 65 64 62 62 63 64 64 65 64 65 65 64 64 63 63
63 64 65 66 66 67 68 68 69 69 68 68 68 69 68 68 67 67 68 67 67 67 67 67 66 66 65 64 64 64 63 62 63 63 63 64 64 65 65 64 63 62 62
62 64 65 65 66 66 67 67 67 67 67 67 66 67 68 67 67 66 66 67 66 66 66 66 66 65 64 63 62 61 61 61 62 63 64 64 64 64 64 63 62 62 61
63 62 64 65 65 65 66 66 66 66 66 67 67 67 67 66 66 65 65 65 65 65 65 64 64 63 62 61 61 61 60 61 62 63 63 63 64 64 63 62 61 60 59
63 63 64 65 64 65 65 65 65 65 65 66 66 66 67 66 65 65 64 64 63 63 64 63 63 62 61 60 60 60 60 60 61 62 63 63 62 63 64 61 60 58 58
64 65 65 64 64 64 65 64 64 65 65 65 65 66 66 66 65 65 64 63 63 62 63 63 62 61 60 60 60 60 59 60 60 61 62 63 62 63 63 62 60 58 58
64 66 66 65 65 64 64 64 64 64 65 64 64 65 66 65 65 64 64 63 63 62 62 61 61 60 60 59 59 60 59 59 60 60 61 62 62 63 63 62 61 60 59
63 64 67 66 66 65 64 65 65 65 64 64 65 65 65 65 64 64 64 63 63 62 62 61 61 60 59 59 58 58 59 60 60 60 61 62 62 62 62 62 60 60 60
60 63 65 66 66 66 65 65 65 65 65 65 65 65 65 65 64 63 63 63 63 62 62 61 61 60 59 59 59 58 59 59 60 61 61 62 62 62 62 61 60 60 60
48 61 63 66 66 66 66 65 65 65 65 65 65 65 65 65 64 63 63 62 62 62 62 61 61 60 60 59 58 59 59 60 60 61 61 61 62 61 60 61 60 60 59
25 42 61 64 65 66 65 64 64 64 64 64 65 65 65 65 64 63 63 62 62 62 62 61 61 60 59 60 58 58 58 59 60 60 61 61 60 59 59 60 60 59 59
50 41 48 61 63 65 65 64 64 64 63 64 63 63 64 64 64 63 63 62 62 62 62 61 61 60 60 59 57 56 54 56 58 60 60 60 59 59 58 59 59 59 59
46 48 53 59 61 64 64 64 63 62 62 62 62 62 63 63 63 63 63 62 62 62 61 61 61 60 58 59 59 55 52 51 54 57 58 59 59 58 58 58 59 59 58
43 45 47 51 60 63 64 63 62 62 61 62 62 62 62 62 62 62 62 62 61 61 61 61 61 60 59 57 59 58 55 54 53 51 57 57 58 57 57 58 58 58 58
41 42 44 47 49 53 59 63 63 62 61 61 62 62 61 62 62 62 62 61 61 61 61 60 59 59 59 58 57 57 57 55 55 52 52 54 56 57 57 57 57 58 58
39 40 43 45 46 48 51 54 63 62 61 60 60 60 61 61 61 62 62 61 61 61 60 59 59 59 58 57 57 56 55 54 54 53 53 53 53 55 56 56 56 57 57

GFSSE_sfc_30mbdewp_120.txt.gz
Dewpoint
65 69 70 71 71 71 70 70 70 70 70 72 72 72 72 72 71 72 72 72 72 71 70 70 70 70 69 68 68 68 68 69 69 69 70 69 69 69 69 69 69 68 69
66 70 70 71 71 70 70 70 70 70 70 71 71 72 71 72 72 72 72 72 72 71 70 70 70 70 68 68 68 69 69 69 68 69 69 69 68 68 69 69 68 68 68
67 69 70 71 71 71 70 70 70 70 71 71 70 71 71 72 72 72 72 72 71 70 70 70 70 69 69 69 68 69 69 69 69 68 69 68 68 68 69 69 69 68 68
68 69 70 71 71 71 70 70 70 70 70 71 71 71 71 72 72 72 72 71 71 70 70 70 70 69 69 69 69 69 69 69 69 69 67 67 68 67 68 68 68 68 68
68 69 70 70 71 71 70 71 70 70 70 70 71 71 72 72 72 72 71 71 71 70 70 68 69 70 69 69 69 69 69 69 68 67 67 67 68 67 68 68 68 68 68
68 69 70 70 70 70 70 70 71 70 70 70 71 71 71 72 72 72 71 71 70 70 68 68 69 69 68 68 68 68 68 68 67 67 66 67 67 67 67 67 67 67 67
68 68 69 69 70 70 70 71 70 70 69 69 70 71 71 71 71 71 71 71 71 70 69 70 69 68 68 68 68 67 67 67 66 66 66 66 66 66 67 67 66 66 66
67 68 69 69 70 70 70 70 70 69 69 69 70 70 71 71 70 69 69 70 70 70 70 69 68 67 67 67 67 66 66 66 65 65 65 65 65 65 66 66 65 65 65
67 67 68 69 69 70 70 70 69 69 69 69 69 70 70 70 69 69 69 69 69 70 70 68 67 67 67 67 66 65 65 65 64 64 64 64 63 65 66 65 64 65 65
66 67 67 68 68 69 69 69 69 69 69 69 69 69 69 69 69 69 68 68 69 69 69 68 67 67 67 66 65 64 64 65 64 64 64 64 63 64 64 65 65 63 63
65 66 67 67 67 68 68 69 68 69 69 69 69 69 69 69 69 68 68 68 68 68 68 67 67 66 66 66 65 64 63 63 63 63 64 64 63 64 64 65 64 63 63
63 64 66 66 66 67 67 68 68 68 69 69 69 69 68 68 68 68 68 67 67 67 67 67 66 66 65 64 64 64 62 62 63 63 63 64 63 65 65 65 64 64 63
61 64 65 65 65 66 66 66 67 67 68 67 68 68 68 67 67 67 67 67 67 67 67 66 66 65 64 63 63 63 62 61 62 63 63 64 63 64 65 65 64 63 62
60 62 64 65 65 66 66 65 65 66 66 66 66 67 67 66 66 66 66 66 66 66 65 65 65 64 63 62 62 61 61 61 61 62 63 64 63 64 65 64 63 62 62
60 62 63 65 65 65 65 65 64 64 66 66 66 66 67 66 65 65 64 65 65 64 64 64 64 63 62 61 61 60 60 60 60 62 63 63 63 62 64 63 62 61 59
63 61 63 64 64 64 64 64 64 64 65 65 65 66 66 66 65 64 64 64 63 64 65 64 62 62 61 60 60 60 60 60 60 61 62 62 63 62 63 64 62 60 59
64 62 63 63 64 64 64 64 64 64 64 64 64 65 65 65 65 64 64 63 63 63 63 62 61 61 60 60 59 60 60 60 59 60 61 62 62 62 61 63 63 61 59
63 64 64 63 63 63 63 63 63 64 64 64 64 64 64 64 65 64 64 63 62 62 62 61 60 59 59 59 59 59 59 59 59 59 60 61 61 62 62 62 63 62 60
61 64 66 65 63 63 63 64 63 63 63 63 64 64 65 65 64 64 64 63 62 62 61 61 60 60 59 58 58 58 58 58 59 60 60 60 61 62 62 62 62 62 60
56 62 64 66 65 64 64 64 64 64 64 64 64 64 64 64 64 64 63 62 62 62 62 61 61 61 60 59 59 58 58 59 59 60 60 61 62 62 62 62 62 62 60
34 35 61 65 66 65 65 64 63 63 63 64 64 64 64 64 64 63 63 62 62 62 61 60 61 60 59 60 58 58 58 59 60 60 61 61 61 62 62 62 61 60 60
46 47 47 58 65 66 65 64 64 64 64 64 65 64 65 64 64 63 63 62 62 62 62 61 61 60 60 60 57 56 54 56 58 59 60 60 60 61 60 60 60 59 59
43 44 46 50 61 65 65 65 63 63 62 63 63 63 64 65 64 64 63 62 62 62 62 61 61 60 58 59 59 55 52 51 55 58 58 60 60 59 59 60 60 59 59
40 42 44 47 53 60 65 64 63 62 62 62 63 63 64 64 64 64 63 62 62 62 62 61 61 61 59 57 59 58 55 54 52 51 57 58 59 58 59 59 59 59 59
39 40 42 46 48 52 57 63 63 62 62 61 62 62 63 62 63 63 62 62 62 61 61 61 61 60 60 58 57 57 57 55 55 53 51 54 57 58 58 58 59 58 58
38 39 41 43 45 48 51 53 59 62 61 61 61 61 61 61 61 62 62 61 61 61 61 61 60 60 59 59 59 57 56 55 54 54 52 53 54 56 57 58 58 58 58

GFSSE_sfc_30mbdewp_123.txt.gz
Dewpoint
64 68 71 71 71 71 70 70 70 72 72 72 71 71 71 71 71 72 72 72 72 71 70 70 70 70 69 69 70 69 69 70 69 70 70 70 69 69 69 70 68 67 69
65 68 71 71 71 71 70 69 70 72 72 72 72 71 71 71 72 72 72 72 71 71 70 70 70 69 68 69 69 69 69 68 69 68 69 70 69 69 69 69 67 68 69
67 68 70 71 71 71 70 70 70 72 72 72 72 71 71 72 72 72 72 72 71 71 70 69 69 69 69 69 69 69 69 69 69 69 69 66 67 68 69 69 68 69 69
67 68 69 71 71 71 70 70 70 71 71 71 71 71 72 72 72 72 72 71 71 71 70 70 69 69 69 69 69 69 69 69 69 69 67 66 66 68 68 68 68 68 68
66 67 69 70 71 70 70 70 70 70 71 71 71 71 72 72 72 72 71 71 71 71 69 69 70 70 69 69 69 69 69 69 68 67 66 67 66 67 68 68 68 68 67
67 67 70 70 70 70 70 70 70 70 70 70 71 71 71 72 72 71 71 70 70 70 68 68 70 69 68 68 69 69 69 68 67 66 66 66 66 67 68 67 67 67 67
67 68 69 70 70 70 70 70 70 69 69 70 71 71 71 72 72 71 70 70 70 69 68 68 69 68 68 68 68 68 68 67 67 67 66 65 66 66 66 66 67 67 67
67 68 69 70 70 70 70 70 69 69 69 70 71 71 71 71 71 71 70 70 69 69 69 69 68 67 68 68 67 67 67 66 66 66 66 65 65 64 65 64 64 65 66
68 68 69 69 69 70 70 70 69 68 69 69 70 70 71 71 70 70 70 70 70 70 69 68 67 67 67 67 66 66 66 66 66 66 66 65 65 64 64 64 63 63 64
67 68 68 69 69 69 70 69 69 68 68 68 69 70 70 70 69 69 69 69 69 69 68 67 67 67 67 66 65 65 65 65 64 64 65 65 63 65 65 65 64 63 62
66 67 68 68 69 69 69 69 69 68 68 68 68 69 69 68 68 68 67 69 69 69 68 67 66 67 66 66 65 64 64 64 64 64 64 65 64 63 62 63 64 64 62
64 65 66 67 67 68 67 68 69 69 68 68 68 68 68 68 68 67 68 68 68 68 67 67 66 66 66 66 66 64 64 64 64 64 63 64 64 64 63 63 64 64 63
61 64 65 66 66 66 66 66 68 68 68 68 68 69 69 68 68 68 69 67 67 67 67 66 66 66 66 65 66 65 64 63 63 63 64 64 62 62 63 65 65 64 64
59 62 64 66 66 66 66 65 66 66 66 66 67 67 68 68 68 68 68 68 67 67 66 66 65 66 65 65 64 64 64 63 62 62 63 63 63 62 64 64 64 64 63
59 59 63 65 65 64 65 65 65 65 66 66 66 67 67 67 67 67 67 68 68 67 66 66 65 65 64 64 63 62 62 62 63 62 63 63 63 62 63 65 65 63 62
59 59 62 64 65 65 64 64 64 65 65 65 66 67 67 67 66 66 67 67 67 67 66 65 64 64 64 63 62 62 61 61 61 61 62 63 63 63 62 64 65 63 61
56 61 61 63 64 65 65 64 64 64 64 64 65 66 67 66 66 65 65 66 66 66 66 65 64 63 63 63 61 61 61 61 60 60 61 62 62 62 62 61 63 64 62
49 61 62 61 63 64 64 64 64 64 64 63 64 64 64 65 65 65 64 65 65 65 65 63 62 62 63 62 61 61 61 61 60 60 60 61 61 62 62 62 61 62 63
49 59 63 62 62 63 63 64 64 64 63 63 64 63 64 64 65 64 64 64 65 65 64 62 61 62 60 61 61 61 61 60 60 60 59 60 60 61 61 61 61 61 62
39 58 62 64 63 63 63 63 63 63 63 64 64 64 64 64 64 64 64 64 64 63 63 63 62 62 61 60 60 60 60 61 60 60 60 60 60 60 61 61 63 62 62
45 53 62 64 64 63 62 62 61 61 62 63 63 63 64 64 64 65 64 63 63 63 63 62 62 60 60 61 59 58 59 60 60 60 60 60 60 60 61 61 62 62 62
46 47 49 59 65 64 63 62 62 62 62 63 63 63 63 63 64 64 64 63 63 63 62 62 61 60 60 60 58 58 55 57 59 60 60 60 60 60 61 61 62 62 62
43 45 47 49 55 65 65 64 64 65 64 63 63 63 63 64 64 64 64 63 63 63 61 61 61 60 59 60 60 57 54 53 56 58 58 60 59 60 61 60 61 61 61
41 43 46 51 53 58 64 65 64 63 62 63 63 63 63 64 64 64 64 63 63 63 63 62 63 62 60 58 60 60 58 55 52 52 57 58 59 59 60 60 60 60 61
39 41 44 48 50 52 57 62 64 63 63 63 63 63 63 63 65 64 64 63 63 63 63 62 62 62 61 58 57 58 58 57 56 53 51 55 57 58 59 60 60 60 60
39 40 42 44 45 48 50 52 56 62 63 62 63 63 62 64 64 64 64 64 63 63 63 62 62 62 61 59 59 58 57 55 55 55 53 53 54 56 58 59 59 59 60

GFSSE_sfc_30mbdewp_126.txt.gz
Dewpoint
59 66 71 71 70 70 71 71 72 72 71 71 71 72 72 72 72 72 72 72 72 71 70 70 71 70 69 70 71 69 70 70 70 70 70 70 69 69 69 69 67 66 69
59 66 71 70 70 70 70 71 72 72 72 71 71 71 71 71 72 72 72 72 71 71 70 70 70 69 69 71 69 69 70 69 70 71 70 69 70 69 69 67 65 67 69
60 66 69 70 70 70 70 71 72 72 72 71 71 71 71 72 72 72 72 72 71 71 70 69 69 69 69 69 69 69 69 69 69 70 69 64 66 69 68 67 68 69 69
62 66 67 70 70 69 70 71 72 73 72 72 71 71 72 72 72 72 72 71 71 71 70 69 69 69 69 69 69 69 69 69 69 69 66 65 66 69 68 67 69 69 68
63 65 67 70 70 69 69 70 71 72 72 72 72 71 72 72 72 72 71 71 71 71 70 70 69 70 69 69 69 69 69 69 69 67 64 64 66 68 68 67 67 66 66
63 64 69 70 70 70 69 70 71 71 71 71 71 72 72 72 72 71 71 71 71 71 70 70 70 69 68 69 69 69 69 68 68 64 63 65 64 68 67 67 65 66 67
63 65 70 70 70 70 70 70 70 70 70 70 71 72 72 72 72 71 70 70 71 70 69 70 70 68 68 68 69 68 68 67 65 62 63 64 65 66 66 65 65 65 67
65 66 68 69 70 70 70 70 69 69 69 70 71 71 71 72 71 70 70 70 70 69 68 69 68 68 68 68 68 68 67 67 64 63 63 64 65 64 65 64 64 64 65
67 68 68 68 69 70 70 69 68 68 69 70 70 71 71 71 70 70 70 69 69 69 69 69 67 67 68 67 67 67 66 66 64 64 63 65 66 64 63 64 65 63 64
68 68 69 68 68 68 68 69 68 68 68 69 70 70 70 70 70 70 70 69 70 69 68 67 67 67 67 66 66 66 65 65 63 62 63 65 64 61 61 64 64 64 64
66 67 68 68 67 68 67 68 68 68 68 69 69 70 70 67 68 69 68 69 69 69 68 67 67 67 67 66 65 65 65 61 61 61 63 64 63 63 63 64 64 64 63
63 65 66 67 67 67 66 67 67 67 66 66 66 68 67 65 66 65 66 68 69 69 68 67 67 66 66 63 64 64 61 61 61 60 63 64 65 64 64 64 63 62 64
59 62 64 66 66 66 65 66 66 65 65 66 66 66 66 66 66 65 66 67 66 67 65 66 66 64 62 63 61 61 60 62 59 59 64 64 64 62 64 63 64 64 63
49 60 62 64 66 66 63 64 66 65 67 66 65 67 66 66 66 65 65 64 64 64 63 63 62 62 64 64 62 62 61 60 58 58 64 63 64 62 63 62 64 64 63
35 55 60 63 64 65 65 63 63 64 66 66 67 68 68 65 65 65 65 65 64 64 64 62 62 64 63 62 62 61 61 61 60 58 59 63 63 63 62 62 64 64 63
30 48 59 61 64 65 64 63 63 64 63 66 66 67 68 65 65 65 65 66 65 65 64 63 62 63 61 61 61 61 60 59 59 58 58 62 62 63 63 63 64 64 63
25 37 53 60 63 64 64 63 63 62 63 64 65 66 67 67 66 66 66 66 66 65 65 64 63 63 61 61 60 60 60 60 59 59 59 58 61 61 62 62 64 63 63
26 26 37 57 61 63 63 63 62 62 63 63 65 65 66 67 66 66 65 65 65 67 66 65 65 64 61 61 60 60 59 59 59 59 59 58 58 60 61 62 62 62 62
25 27 32 52 60 62 62 62 62 62 64 63 63 62 65 66 66 65 65 65 66 66 65 65 64 63 62 61 60 60 60 59 59 59 58 59 59 58 58 61 61 61 62
35 33 30 46 60 62 62 62 61 61 63 63 63 63 63 64 65 65 64 65 66 65 64 64 64 64 62 61 60 59 60 60 60 60 59 59 59 59 59 59 60 60 61
43 44 35 42 58 62 61 60 59 59 60 61 61 62 63 64 64 64 64 65 65 64 64 64 64 62 62 62 61 61 61 62 61 61 60 60 59 59 59 59 60 61 62
45 45 46 48 51 61 61 59 57 58 58 59 60 60 62 63 64 64 64 64 63 63 63 63 63 61 62 62 60 59 57 56 60 60 60 60 59 59 59 60 60 59 61
43 45 46 50 57 60 63 61 59 58 59 59 60 60 61 62 63 65 64 64 63 63 62 63 62 62 60 62 61 55 54 51 51 56 59 60 59 60 60 60 60 60 61
41 43 47 50 53 62 64 62 61 61 61 62 62 61 62 62 62 63 63 63 62 63 62 62 62 62 61 59 61 59 55 53 50 49 56 58 60 59 60 60 58 59 61
40 41 44 48 52 55 62 62 64 62 61 62 63 63 64 63 63 62 63 63 64 63 63 63 62 63 62 61 59 57 58 57 56 52 49 54 57 58 57 58 59 59 60
40 41 42 44 46 50 54 55 60 62 63 62 63 63 63 64 64 64 65 65 64 64 64 64 63 63 62 61 59 57 56 56 56 56 53 52 51 53 56 57 59 59 60